2016 Cux-Wetter.de -Die Nutzung der Wetterdaten nur mit ausdrcklicher Genehmigung
Wetterdaten: Mittwoch, 09.05.2018
Datum Zeit Temp. A. Feuchte A. Luftdruck Regen Wind Richtung Richtung Sonnenschein Solar Taupunkt Windchill Windben
09.05.2018 00:00 18,7 C 51 % 1009,1 hPa 0,0 l/m 4,9 km/h (1 Bft) SO 138 0 min 0 W/m 8,4 C 18,7 C 11,3 km/h (2 Bft)
09.05.2018 00:03 18,7 C 51 % 1009,1 hPa 0,0 l/m 6,6 km/h (2 Bft) S-SO 149 0 min 0 W/m 8,4 C 18,6 C 12,9 km/h (3 Bft)
09.05.2018 00:06 18,7 C 51 % 1009,0 hPa 0,0 l/m 6,2 km/h (2 Bft) SO 124 0 min 0 W/m 8,4 C 18,7 C 14,5 km/h (3 Bft)
09.05.2018 00:09 18,7 C 51 % 1009,1 hPa 0,0 l/m 5,9 km/h (2 Bft) S-SO 155 0 min 0 W/m 8,4 C 18,7 C 14,5 km/h (3 Bft)
09.05.2018 00:12 18,7 C 51 % 1009,1 hPa 0,0 l/m 5,7 km/h (2 Bft) SO 146 0 min 0 W/m 8,4 C 18,7 C 11,3 km/h (2 Bft)
09.05.2018 00:15 18,7 C 51 % 1009,0 hPa 0,0 l/m 5,7 km/h (2 Bft) SO 125 0 min 0 W/m 8,4 C 18,7 C 12,9 km/h (3 Bft)
09.05.2018 00:18 18,7 C 52 % 1009,1 hPa 0,0 l/m 4,7 km/h (1 Bft) SO 143 0 min 0 W/m 8,6 C 18,7 C 12,9 km/h (3 Bft)
09.05.2018 00:21 18,7 C 52 % 1009,1 hPa 0,0 l/m 5,6 km/h (2 Bft) SO 143 0 min 0 W/m 8,6 C 18,7 C 12,9 km/h (3 Bft)
09.05.2018 00:24 18,6 C 52 % 1009,0 hPa 0,0 l/m 4,9 km/h (1 Bft) SO 146 0 min 0 W/m 8,5 C 18,6 C 6,4 km/h (2 Bft)
09.05.2018 00:27 18,6 C 52 % 1009,0 hPa 0,0 l/m 5,0 km/h (1 Bft) SO 131 0 min 0 W/m 8,5 C 18,6 C 11,3 km/h (2 Bft)
09.05.2018 00:30 18,6 C 52 % 1009,1 hPa 0,0 l/m 4,0 km/h (1 Bft) SO 132 0 min 0 W/m 8,5 C 18,6 C 6,4 km/h (2 Bft)
09.05.2018 00:33 18,5 C 52 % 1009,1 hPa 0,0 l/m 4,4 km/h (1 Bft) SO 142 0 min 0 W/m 8,5 C 18,5 C 8,0 km/h (2 Bft)
09.05.2018 00:36 18,4 C 53 % 1009,1 hPa 0,0 l/m 4,4 km/h (1 Bft) S-SO 156 0 min 0 W/m 8,6 C 18,4 C 8,0 km/h (2 Bft)
09.05.2018 00:39 18,4 C 52 % 1009,1 hPa 0,0 l/m 4,6 km/h (1 Bft) SO 138 0 min 0 W/m 8,4 C 18,4 C 12,9 km/h (3 Bft)
09.05.2018 00:42 18,3 C 53 % 1009,1 hPa 0,0 l/m 5,3 km/h (1 Bft) SO 136 0 min 0 W/m 8,6 C 18,3 C 9,7 km/h (2 Bft)
09.05.2018 00:45 18,3 C 53 % 1009,1 hPa 0,0 l/m 4,1 km/h (1 Bft) SO 138 0 min 0 W/m 8,6 C 18,3 C 8,0 km/h (2 Bft)
09.05.2018 00:48 18,2 C 53 % 1009,1 hPa 0,0 l/m 4,7 km/h (1 Bft) SO 128 0 min 0 W/m 8,5 C 18,2 C 12,9 km/h (3 Bft)
09.05.2018 00:51 18,2 C 54 % 1009,1 hPa 0,0 l/m 3,5 km/h (1 Bft) SO 134 0 min 0 W/m 8,7 C 18,2 C 6,4 km/h (2 Bft)
09.05.2018 00:54 18,1 C 54 % 1009,1 hPa 0,0 l/m 4,3 km/h (1 Bft) O-SO 113 0 min 0 W/m 8,6 C 18,1 C 11,3 km/h (2 Bft)
09.05.2018 00:57 18,1 C 54 % 1009,1 hPa 0,0 l/m 4,6 km/h (1 Bft) SO 144 0 min 0 W/m 8,6 C 18,1 C 11,3 km/h (2 Bft)
09.05.2018 01:00 18,0 C 54 % 1009,1 hPa 0,0 l/m 4,6 km/h (1 Bft) SO 128 0 min 0 W/m 8,6 C 18,0 C 9,7 km/h (2 Bft)
09.05.2018 01:03 17,9 C 54 % 1009,1 hPa 0,0 l/m 4,2 km/h (1 Bft) SO 130 0 min 0 W/m 8,5 C 17,9 C 8,0 km/h (2 Bft)
09.05.2018 01:06 17,9 C 54 % 1009,1 hPa 0,0 l/m 3,9 km/h (1 Bft) SO 131 0 min 0 W/m 8,5 C 17,9 C 8,0 km/h (2 Bft)
09.05.2018 01:09 17,8 C 55 % 1009,2 hPa 0,0 l/m 3,8 km/h (1 Bft) O-SO 108 0 min 0 W/m 8,6 C 17,8 C 9,7 km/h (2 Bft)
09.05.2018 01:12 17,7 C 56 % 1009,2 hPa 0,0 l/m 2,9 km/h (1 Bft) NO 34 0 min 0 W/m 8,8 C 17,7 C 6,4 km/h (2 Bft)
09.05.2018 01:15 17,5 C 59 % 1009,1 hPa 0,0 l/m 1,9 km/h (1 Bft) O 101 0 min 0 W/m 9,4 C 17,5 C 9,7 km/h (2 Bft)
09.05.2018 01:18 17,3 C 61 % 1009,2 hPa 0,0 l/m 2,1 km/h (1 Bft) O 101 0 min 0 W/m 9,7 C 17,3 C 3,2 km/h (1 Bft)
09.05.2018 01:21 16,9 C 63 % 1009,2 hPa 0,0 l/m 0,9 km/h (0 Bft) O 100 0 min 0 W/m 9,8 C 16,9 C 3,2 km/h (1 Bft)
09.05.2018 01:24 16,7 C 65 % 1009,2 hPa 0,0 l/m 2,1 km/h (1 Bft) N 5 0 min 0 W/m 10,1 C 16,7 C 4,8 km/h (1 Bft)
09.05.2018 01:27 16,4 C 67 % 1009,2 hPa 0,0 l/m 2,2 km/h (1 Bft) N-NO 26 0 min 0 W/m 10,3 C 16,4 C 4,8 km/h (1 Bft)
09.05.2018 01:30 16,3 C 68 % 1009,1 hPa 0,0 l/m 2,6 km/h (1 Bft) NO 34 0 min 0 W/m 10,4 C 16,3 C 4,8 km/h (1 Bft)
09.05.2018 01:33 16,1 C 69 % 1009,1 hPa 0,0 l/m 0,4 km/h (0 Bft) NO 34 0 min 0 W/m 10,4 C 16,1 C 3,2 km/h (1 Bft)
09.05.2018 01:36 15,9 C 70 % 1009,1 hPa 0,0 l/m 0,6 km/h (0 Bft) NO 37 0 min 0 W/m 10,4 C 15,9 C 4,8 km/h (1 Bft)
09.05.2018 01:39 15,7 C 71 % 1009,1 hPa 0,0 l/m 1,2 km/h (1 Bft) NO 37 0 min 0 W/m 10,5 C 15,7 C 4,8 km/h (1 Bft)
09.05.2018 01:42 15,6 C 71 % 1009,1 hPa 0,0 l/m 2,5 km/h (1 Bft) O 80 0 min 0 W/m 10,4 C 15,6 C 4,8 km/h (1 Bft)
09.05.2018 01:45 15,5 C 72 % 1009,0 hPa 0,0 l/m 1,3 km/h (1 Bft) O-NO 78 0 min 0 W/m 10,5 C 15,5 C 3,2 km/h (1 Bft)
09.05.2018 01:48 15,4 C 72 % 1009,1 hPa 0,0 l/m 1,0 km/h (0 Bft) O 79 0 min 0 W/m 10,4 C 15,4 C 3,2 km/h (1 Bft)
09.05.2018 01:51 15,3 C 73 % 1009,0 hPa 0,0 l/m 2,1 km/h (1 Bft) O-NO 76 0 min 0 W/m 10,5 C 15,3 C 4,8 km/h (1 Bft)
09.05.2018 01:54 15,2 C 73 % 1009,0 hPa 0,0 l/m 1,9 km/h (1 Bft) O-NO 76 0 min 0 W/m 10,4 C 15,2 C 4,8 km/h (1 Bft)
09.05.2018 01:57 15,1 C 73 % 1009,0 hPa 0,0 l/m 2,0 km/h (1 Bft) O-SO 121 0 min 0 W/m 10,3 C 15,1 C 6,4 km/h (2 Bft)
09.05.2018 02:00 15,1 C 73 % 1009,0 hPa 0,0 l/m 1,7 km/h (1 Bft) O-SO 113 0 min 0 W/m 10,3 C 15,1 C 4,8 km/h (1 Bft)
09.05.2018 02:03 15,0 C 74 % 1009,0 hPa 0,0 l/m 1,8 km/h (1 Bft) O 82 0 min 0 W/m 10,4 C 15,0 C 3,2 km/h (1 Bft)
09.05.2018 02:06 14,9 C 74 % 1009,0 hPa 0,0 l/m 1,5 km/h (1 Bft) O 81 0 min 0 W/m 10,3 C 14,9 C 4,8 km/h (1 Bft)
09.05.2018 02:09 14,8 C 74 % 1009,1 hPa 0,0 l/m 0,6 km/h (0 Bft) O 81 0 min 0 W/m 10,2 C 14,8 C 3,2 km/h (1 Bft)
09.05.2018 02:12 14,8 C 74 % 1009,0 hPa 0,0 l/m 0,5 km/h (0 Bft) O 81 0 min 0 W/m 10,2 C 14,8 C 1,6 km/h (1 Bft)
09.05.2018 02:15 14,7 C 75 % 1009,0 hPa 0,0 l/m 0,7 km/h (0 Bft) O 81 0 min 0 W/m 10,3 C 14,7 C 1,6 km/h (1 Bft)
09.05.2018 02:18 14,7 C 75 % 1009,0 hPa 0,0 l/m 1,1 km/h (1 Bft) O 81 0 min 0 W/m 10,3 C 14,7 C 3,2 km/h (1 Bft)
09.05.2018 02:21 14,6 C 75 % 1009,0 hPa 0,0 l/m 0,6 km/h (0 Bft) O 81 0 min 0 W/m 10,2 C 14,6 C 3,2 km/h (1 Bft)
09.05.2018 02:24 14,5 C 75 % 1009,0 hPa 0,0 l/m 1,1 km/h (1 Bft) O 81 0 min 0 W/m 10,1 C 14,5 C 3,2 km/h (1 Bft)
09.05.2018 02:27 14,4 C 76 % 1009,0 hPa 0,0 l/m 0,7 km/h (0 Bft) O 81 0 min 0 W/m 10,2 C 14,4 C 3,2 km/h (1 Bft)
09.05.2018 02:30 14,3 C 76 % 1009,0 hPa 0,0 l/m 1,6 km/h (1 Bft) O 80 0 min 0 W/m 10,1 C 14,3 C 4,8 km/h (1 Bft)
09.05.2018 02:33 14,3 C 76 % 1008,9 hPa 0,0 l/m 0,9 km/h (0 Bft) O 82 0 min 0 W/m 10,1 C 14,3 C 3,2 km/h (1 Bft)
09.05.2018 02:36 14,2 C 77 % 1008,9 hPa 0,0 l/m 1,4 km/h (1 Bft) O-NO 78 0 min 0 W/m 10,2 C 14,2 C 4,8 km/h (1 Bft)
09.05.2018 02:39 14,2 C 77 % 1008,9 hPa 0,0 l/m 2,0 km/h (1 Bft) O-NO 68 0 min 0 W/m 10,2 C 14,2 C 4,8 km/h (1 Bft)
09.05.2018 02:42 14,1 C 77 % 1008,9 hPa 0,0 l/m 1,3 km/h (1 Bft) O-NO 68 0 min 0 W/m 10,1 C 14,1 C 3,2 km/h (1 Bft)
09.05.2018 02:45 14,1 C 77 % 1008,9 hPa 0,0 l/m 1,3 km/h (1 Bft) O-NO 67 0 min 0 W/m 10,1 C 14,1 C 3,2 km/h (1 Bft)
09.05.2018 02:48 14,0 C 77 % 1008,8 hPa 0,0 l/m 1,3 km/h (1 Bft) O-NO 69 0 min 0 W/m 10,0 C 14,0 C 3,2 km/h (1 Bft)
09.05.2018 02:51 13,9 C 78 % 1008,8 hPa 0,0 l/m 2,1 km/h (1 Bft) O-NO 74 0 min 0 W/m 10,1 C 13,9 C 3,2 km/h (1 Bft)
09.05.2018 02:54 13,9 C 78 % 1008,8 hPa 0,0 l/m 1,5 km/h (1 Bft) O-NO 71 0 min 0 W/m 10,1 C 13,9 C 4,8 km/h (1 Bft)
09.05.2018 02:57 13,8 C 78 % 1008,7 hPa 0,0 l/m 1,0 km/h (0 Bft) O-NO 71 0 min 0 W/m 10,0 C 13,8 C 3,2 km/h (1 Bft)
09.05.2018 03:00 13,8 C 78 % 1008,8 hPa 0,0 l/m 1,9 km/h (1 Bft) O-NO 74 0 min 0 W/m 10,0 C 13,8 C 4,8 km/h (1 Bft)
09.05.2018 03:03 13,7 C 79 % 1008,7 hPa 0,0 l/m 1,7 km/h (1 Bft) O-NO 74 0 min 0 W/m 10,1 C 13,7 C 4,8 km/h (1 Bft)
09.05.2018 03:06 13,7 C 79 % 1008,7 hPa 0,0 l/m 2,4 km/h (1 Bft) O-NO 68 0 min 0 W/m 10,1 C 13,7 C 4,8 km/h (1 Bft)
09.05.2018 03:09 13,6 C 79 % 1008,7 hPa 0,0 l/m 1,9 km/h (1 Bft) O-NO 69 0 min 0 W/m 10,0 C 13,6 C 6,4 km/h (2 Bft)
09.05.2018 03:12 13,6 C 80 % 1008,7 hPa 0,0 l/m 0,9 km/h (0 Bft) O-NO 69 0 min 0 W/m 10,2 C 13,6 C 3,2 km/h (1 Bft)
09.05.2018 03:15 13,6 C 80 % 1008,7 hPa 0,0 l/m 1,0 km/h (0 Bft) O-NO 68 0 min 0 W/m 10,2 C 13,6 C 3,2 km/h (1 Bft)
09.05.2018 03:18 13,6 C 80 % 1008,7 hPa 0,0 l/m 2,7 km/h (1 Bft) O-NO 71 0 min 0 W/m 10,2 C 13,6 C 4,8 km/h (1 Bft)
09.05.2018 03:21 13,6 C 80 % 1008,8 hPa 0,0 l/m 1,2 km/h (1 Bft) O-NO 71 0 min 0 W/m 10,2 C 13,6 C 3,2 km/h (1 Bft)
09.05.2018 03:24 13,5 C 80 % 1008,8 hPa 0,0 l/m 1,4 km/h (1 Bft) O-NO 61 0 min 0 W/m 10,1 C 13,5 C 4,8 km/h (1 Bft)
09.05.2018 03:27 13,5 C 80 % 1008,8 hPa 0,0 l/m 1,9 km/h (1 Bft) O-NO 68 0 min 0 W/m 10,1 C 13,5 C 8,0 km/h (2 Bft)
09.05.2018 03:30 13,4 C 80 % 1008,7 hPa 0,0 l/m 2,7 km/h (1 Bft) O 86 0 min 0 W/m 10,0 C 13,4 C 8,0 km/h (2 Bft)
09.05.2018 03:33 13,4 C 81 % 1008,7 hPa 0,0 l/m 2,2 km/h (1 Bft) O-NO 78 0 min 0 W/m 10,2 C 13,4 C 4,8 km/h (1 Bft)
09.05.2018 03:36 13,4 C 81 % 1008,7 hPa 0,0 l/m 2,9 km/h (1 Bft) O 79 0 min 0 W/m 10,2 C 13,4 C 6,4 km/h (2 Bft)
09.05.2018 03:39 13,4 C 81 % 1008,7 hPa 0,0 l/m 1,7 km/h (1 Bft) O 87 0 min 0 W/m 10,2 C 13,4 C 4,8 km/h (1 Bft)
09.05.2018 03:42 13,4 C 81 % 1008,7 hPa 0,0 l/m 2,4 km/h (1 Bft) O 84 0 min 0 W/m 10,2 C 13,4 C 4,8 km/h (1 Bft)
09.05.2018 03:45 13,3 C 81 % 1008,7 hPa 0,0 l/m 2,7 km/h (1 Bft) NO 37 0 min 0 W/m 10,1 C 13,3 C 6,4 km/h (2 Bft)
09.05.2018 03:48 13,3 C 81 % 1008,6 hPa 0,0 l/m 2,3 km/h (1 Bft) NO 51 0 min 0 W/m 10,1 C 13,3 C 4,8 km/h (1 Bft)
09.05.2018 03:51 13,3 C 81 % 1008,6 hPa 0,0 l/m 2,5 km/h (1 Bft) O 88 0 min 0 W/m 10,1 C 13,3 C 6,4 km/h (2 Bft)
09.05.2018 03:54 13,2 C 81 % 1008,6 hPa 0,0 l/m 1,6 km/h (1 Bft) O 92 0 min 0 W/m 10,0 C 13,2 C 4,8 km/h (1 Bft)
09.05.2018 03:57 13,2 C 81 % 1008,5 hPa 0,0 l/m 2,2 km/h (1 Bft) O 93 0 min 0 W/m 10,0 C 13,2 C 6,4 km/h (2 Bft)
09.05.2018 04:00 13,2 C 82 % 1008,6 hPa 0,0 l/m 2,4 km/h (1 Bft) O 100 0 min 0 W/m 10,2 C 13,2 C 6,4 km/h (2 Bft)
09.05.2018 04:03 13,2 C 82 % 1008,5 hPa 0,0 l/m 2,8 km/h (1 Bft) O-SO 103 0 min 0 W/m 10,2 C 13,2 C 4,8 km/h (1 Bft)
09.05.2018 04:06 13,2 C 82 % 1008,6 hPa 0,0 l/m 2,4 km/h (1 Bft) O-SO 104 0 min 0 W/m 10,2 C 13,2 C 4,8 km/h (1 Bft)
09.05.2018 04:09 13,1 C 82 % 1008,6 hPa 0,0 l/m 1,9 km/h (1 Bft) SO 126 0 min 0 W/m 10,1 C 13,1 C 6,4 km/h (2 Bft)
09.05.2018 04:12 13,1 C 82 % 1008,5 hPa 0,0 l/m 2,3 km/h (1 Bft) O 84 0 min 0 W/m 10,1 C 13,1 C 4,8 km/h (1 Bft)
09.05.2018 04:15 13,1 C 82 % 1008,5 hPa 0,0 l/m 2,0 km/h (1 Bft) O 84 0 min 0 W/m 10,1 C 13,1 C 4,8 km/h (1 Bft)
09.05.2018 04:18 13,1 C 82 % 1008,6 hPa 0,0 l/m 2,7 km/h (1 Bft) O 96 0 min 0 W/m 10,1 C 13,1 C 9,7 km/h (2 Bft)
09.05.2018 04:21 13,1 C 82 % 1008,5 hPa 0,0 l/m 2,7 km/h (1 Bft) O-SO 122 0 min 0 W/m 10,1 C 13,1 C 6,4 km/h (2 Bft)
09.05.2018 04:24 13,1 C 82 % 1008,5 hPa 0,0 l/m 2,5 km/h (1 Bft) O 101 0 min 0 W/m 10,1 C 13,1 C 6,4 km/h (2 Bft)
09.05.2018 04:27 13,0 C 82 % 1008,5 hPa 0,0 l/m 2,3 km/h (1 Bft) O 88 0 min 0 W/m 10,0 C 13,0 C 4,8 km/h (1 Bft)
09.05.2018 04:30 13,1 C 83 % 1008,4 hPa 0,0 l/m 2,7 km/h (1 Bft) O 92 0 min 0 W/m 10,3 C 13,1 C 6,4 km/h (2 Bft)
09.05.2018 04:33 13,0 C 83 % 1008,5 hPa 0,0 l/m 1,7 km/h (1 Bft) O 89 0 min 0 W/m 10,2 C 13,0 C 4,8 km/h (1 Bft)
09.05.2018 04:36 13,0 C 83 % 1008,5 hPa 0,0 l/m 2,2 km/h (1 Bft) O-NO 61 0 min 0 W/m 10,2 C 13,0 C 8,0 km/h (2 Bft)
09.05.2018 04:39 13,0 C 83 % 1008,4 hPa 0,0 l/m 2,6 km/h (1 Bft) O-NO 68 0 min 0 W/m 10,2 C 13,0 C 4,8 km/h (1 Bft)
09.05.2018 04:42 13,0 C 83 % 1008,4 hPa 0,0 l/m 3,7 km/h (1 Bft) O-NO 66 0 min 0 W/m 10,2 C 13,0 C 6,4 km/h (2 Bft)
09.05.2018 04:45 12,9 C 83 % 1008,4 hPa 0,0 l/m 3,0 km/h (1 Bft) O-SO 113 0 min 0 W/m 10,1 C 12,9 C 6,4 km/h (2 Bft)
09.05.2018 04:48 12,9 C 83 % 1008,4 hPa 0,0 l/m 2,5 km/h (1 Bft) O 98 0 min 0 W/m 10,1 C 12,9 C 6,4 km/h (2 Bft)
09.05.2018 04:51 12,9 C 83 % 1008,4 hPa 0,0 l/m 3,0 km/h (1 Bft) O-NO 77 0 min 0 W/m 10,1 C 12,9 C 9,7 km/h (2 Bft)
09.05.2018 04:54 12,9 C 83 % 1008,4 hPa 0,0 l/m 3,6 km/h (1 Bft) O 86 0 min 0 W/m 10,1 C 12,9 C 6,4 km/h (2 Bft)
09.05.2018 04:57 12,9 C 83 % 1008,4 hPa 0,0 l/m 2,6 km/h (1 Bft) O-SO 104 0 min 0 W/m 10,1 C 12,9 C 6,4 km/h (2 Bft)
09.05.2018 05:00 12,9 C 83 % 1008,5 hPa 0,0 l/m 2,3 km/h (1 Bft) O-SO 103 0 min 0 W/m 10,1 C 12,9 C 4,8 km/h (1 Bft)
09.05.2018 05:03 12,9 C 83 % 1008,5 hPa 0,0 l/m 2,7 km/h (1 Bft) O-SO 106 0 min 0 W/m 10,1 C 12,9 C 6,4 km/h (2 Bft)
09.05.2018 05:06 12,9 C 83 % 1008,5 hPa 0,0 l/m 2,2 km/h (1 Bft) O-SO 106 0 min 0 W/m 10,1 C 12,9 C 4,8 km/h (1 Bft)
09.05.2018 05:09 12,9 C 84 % 1008,5 hPa 0,0 l/m 3,1 km/h (1 Bft) O 85 0 min 0 W/m 10,3 C 12,9 C 6,4 km/h (2 Bft)
09.05.2018 05:12 13,0 C 84 % 1008,4 hPa 0,0 l/m 2,6 km/h (1 Bft) O 85 0 min 0 W/m 10,4 C 13,0 C 6,4 km/h (2 Bft)
09.05.2018 05:15 13,0 C 84 % 1008,4 hPa 0,0 l/m 2,5 km/h (1 Bft) O 84 0 min 0 W/m 10,4 C 13,0 C 4,8 km/h (1 Bft)
09.05.2018 05:18 13,0 C 84 % 1008,5 hPa 0,0 l/m 2,5 km/h (1 Bft) O-SO 105 0 min 0 W/m 10,4 C 13,0 C 4,8 km/h (1 Bft)
09.05.2018 05:21 13,0 C 84 % 1008,5 hPa 0,0 l/m 2,4 km/h (1 Bft) O 100 0 min 0 W/m 10,4 C 13,0 C 6,4 km/h (2 Bft)
09.05.2018 05:24 13,0 C 84 % 1008,5 hPa 0,0 l/m 2,1 km/h (1 Bft) O-SO 113 0 min 0 W/m 10,4 C 13,0 C 6,4 km/h (2 Bft)
09.05.2018 05:27 12,9 C 84 % 1008,5 hPa 0,0 l/m 2,5 km/h (1 Bft) O-NO 70 0 min 0 W/m 10,3 C 12,9 C 4,8 km/h (1 Bft)
09.05.2018 05:30 12,9 C 84 % 1008,4 hPa 0,0 l/m 2,3 km/h (1 Bft) O 92 0 min 0 W/m 10,3 C 12,9 C 4,8 km/h (1 Bft)
09.05.2018 05:33 12,9 C 84 % 1008,5 hPa 0,0 l/m 2,8 km/h (1 Bft) O-SO 119 0 min 0 W/m 10,3 C 12,9 C 6,4 km/h (2 Bft)
09.05.2018 05:36 12,9 C 84 % 1008,5 hPa 0,0 l/m 2,4 km/h (1 Bft) O-NO 64 0 min 0 W/m 10,3 C 12,9 C 4,8 km/h (1 Bft)
09.05.2018 05:39 12,9 C 84 % 1008,5 hPa 0,0 l/m 2,3 km/h (1 Bft) O 92 0 min 0 W/m 10,3 C 12,9 C 4,8 km/h (1 Bft)
09.05.2018 05:42 12,9 C 85 % 1008,5 hPa 0,0 l/m 2,3 km/h (1 Bft) O 91 0 min 5 W/m 10,4 C 12,9 C 4,8 km/h (1 Bft)
09.05.2018 05:45 12,9 C 85 % 1008,4 hPa 0,0 l/m 2,7 km/h (1 Bft) O-SO 119 0 min 5 W/m 10,4 C 12,9 C 6,4 km/h (2 Bft)
09.05.2018 05:48 12,9 C 85 % 1008,4 hPa 0,0 l/m 2,7 km/h (1 Bft) SO 129 0 min 7 W/m 10,4 C 12,9 C 6,4 km/h (2 Bft)
09.05.2018 05:51 12,9 C 85 % 1008,4 hPa 0,0 l/m 2,9 km/h (1 Bft) SO 146 0 min 7 W/m 10,4 C 12,9 C 8,0 km/h (2 Bft)
09.05.2018 05:54 12,9 C 85 % 1008,4 hPa 0,0 l/m 2,8 km/h (1 Bft) SO 132 0 min 7 W/m 10,4 C 12,9 C 9,7 km/h (2 Bft)
09.05.2018 05:57 12,9 C 84 % 1008,4 hPa 0,0 l/m 2,7 km/h (1 Bft) SO 139 0 min 9 W/m 10,3 C 12,9 C 6,4 km/h (2 Bft)
09.05.2018 06:00 12,9 C 85 % 1008,4 hPa 0,0 l/m 2,6 km/h (1 Bft) O 98 0 min 9 W/m 10,4 C 12,9 C 6,4 km/h (2 Bft)
09.05.2018 06:03 12,9 C 84 % 1008,4 hPa 0,0 l/m 2,8 km/h (1 Bft) O-SO 107 0 min 11 W/m 10,3 C 12,9 C 8,0 km/h (2 Bft)
09.05.2018 06:06 12,9 C 84 % 1008,4 hPa 0,0 l/m 2,8 km/h (1 Bft) O-SO 117 0 min 11 W/m 10,3 C 12,9 C 6,4 km/h (2 Bft)
09.05.2018 06:09 13,0 C 84 % 1008,5 hPa 0,0 l/m 3,0 km/h (1 Bft) O 82 0 min 12 W/m 10,4 C 13,0 C 6,4 km/h (2 Bft)
09.05.2018 06:12 13,0 C 84 % 1008,5 hPa 0,0 l/m 2,2 km/h (1 Bft) O-NO 77 0 min 12 W/m 10,4 C 13,0 C 6,4 km/h (2 Bft)
09.05.2018 06:15 13,1 C 84 % 1008,4 hPa 0,0 l/m 2,6 km/h (1 Bft) O-SO 104 0 min 14 W/m 10,5 C 13,1 C 6,4 km/h (2 Bft)
09.05.2018 06:18 13,1 C 84 % 1008,4 hPa 0,0 l/m 2,7 km/h (1 Bft) O 86 0 min 14 W/m 10,5 C 13,1 C 8,0 km/h (2 Bft)
09.05.2018 06:21 13,1 C 84 % 1008,4 hPa 0,0 l/m 2,5 km/h (1 Bft) SO 132 0 min 14 W/m 10,5 C 13,1 C 6,4 km/h (2 Bft)
09.05.2018 06:24 13,1 C 83 % 1008,4 hPa 0,0 l/m 3,5 km/h (1 Bft) O-SO 119 0 min 16 W/m 10,3 C 13,1 C 6,4 km/h (2 Bft)
09.05.2018 06:27 13,2 C 83 % 1008,4 hPa 0,0 l/m 3,1 km/h (1 Bft) O-SO 112 0 min 16 W/m 10,4 C 13,2 C 11,3 km/h (2 Bft)
09.05.2018 06:30 13,2 C 83 % 1008,4 hPa 0,0 l/m 2,5 km/h (1 Bft) O-SO 113 0 min 18 W/m 10,4 C 13,2 C 6,4 km/h (2 Bft)
09.05.2018 06:33 13,3 C 82 % 1008,4 hPa 0,0 l/m 2,8 km/h (1 Bft) O-SO 105 0 min 18 W/m 10,3 C 13,3 C 6,4 km/h (2 Bft)
09.05.2018 06:36 13,3 C 82 % 1008,4 hPa 0,0 l/m 2,8 km/h (1 Bft) O-SO 111 0 min 19 W/m 10,3 C 13,3 C 6,4 km/h (2 Bft)
09.05.2018 06:39 13,4 C 81 % 1008,5 hPa 0,0 l/m 0,7 km/h (0 Bft) O-SO 111 0 min 19 W/m 10,2 C 13,4 C 1,6 km/h (1 Bft)
09.05.2018 06:42 13,5 C 81 % 1008,5 hPa 0,0 l/m 2,6 km/h (1 Bft) O-SO 110 0 min 19 W/m 10,3 C 13,5 C 6,4 km/h (2 Bft)
09.05.2018 06:45 13,6 C 81 % 1008,6 hPa 0,0 l/m 2,7 km/h (1 Bft) O-SO 104 0 min 21 W/m 10,4 C 13,6 C 6,4 km/h (2 Bft)
09.05.2018 06:48 13,7 C 80 % 1008,5 hPa 0,0 l/m 1,9 km/h (1 Bft) O 90 0 min 21 W/m 10,3 C 13,7 C 4,8 km/h (1 Bft)
09.05.2018 06:51 13,7 C 80 % 1008,5 hPa 0,0 l/m 1,7 km/h (1 Bft) O 84 0 min 23 W/m 10,3 C 13,7 C 3,2 km/h (1 Bft)
09.05.2018 06:54 13,7 C 81 % 1008,5 hPa 0,0 l/m 1,6 km/h (1 Bft) O 79 0 min 23 W/m 10,5 C 13,7 C 6,4 km/h (2 Bft)
09.05.2018 06:57 13,7 C 81 % 1008,4 hPa 0,0 l/m 2,3 km/h (1 Bft) O 82 0 min 23 W/m 10,5 C 13,7 C 4,8 km/h (1 Bft)
09.05.2018 07:00 13,7 C 81 % 1008,4 hPa 0,0 l/m 2,4 km/h (1 Bft) S-SO 151 0 min 23 W/m 10,5 C 13,7 C 6,4 km/h (2 Bft)
09.05.2018 07:03 13,7 C 81 % 1008,4 hPa 0,0 l/m 2,1 km/h (1 Bft) SO 142 0 min 25 W/m 10,5 C 13,7 C 6,4 km/h (2 Bft)
09.05.2018 07:06 13,7 C 81 % 1008,4 hPa 0,0 l/m 2,5 km/h (1 Bft) O 90 0 min 25 W/m 10,5 C 13,7 C 6,4 km/h (2 Bft)
09.05.2018 07:09 13,8 C 81 % 1008,5 hPa 0,0 l/m 2,8 km/h (1 Bft) SO 126 0 min 25 W/m 10,6 C 13,8 C 9,7 km/h (2 Bft)
09.05.2018 07:12 13,8 C 81 % 1008,5 hPa 0,0 l/m 2,4 km/h (1 Bft) O-SO 121 0 min 26 W/m 10,6 C 13,8 C 8,0 km/h (2 Bft)
09.05.2018 07:15 13,8 C 81 % 1008,4 hPa 0,0 l/m 2,0 km/h (1 Bft) O-SO 117 0 min 26 W/m 10,6 C 13,8 C 6,4 km/h (2 Bft)
09.05.2018 07:18 13,9 C 81 % 1008,5 hPa 0,0 l/m 2,5 km/h (1 Bft) S 175 0 min 26 W/m 10,7 C 13,9 C 4,8 km/h (1 Bft)
09.05.2018 07:21 13,9 C 81 % 1008,5 hPa 0,0 l/m 3,1 km/h (1 Bft) O-SO 108 0 min 26 W/m 10,7 C 13,9 C 4,8 km/h (1 Bft)
09.05.2018 07:24 14,1 C 80 % 1008,5 hPa 0,0 l/m 2,4 km/h (1 Bft) O-SO 123 0 min 28 W/m 10,7 C 14,1 C 4,8 km/h (1 Bft)
09.05.2018 07:27 14,2 C 80 % 1008,5 hPa 0,0 l/m 3,8 km/h (1 Bft) O 93 0 min 28 W/m 10,8 C 14,2 C 9,7 km/h (2 Bft)
09.05.2018 07:30 14,3 C 79 % 1008,5 hPa 0,0 l/m 3,4 km/h (1 Bft) O 90 0 min 28 W/m 10,7 C 14,3 C 9,7 km/h (2 Bft)
09.05.2018 07:33 14,5 C 78 % 1008,5 hPa 0,0 l/m 2,9 km/h (1 Bft) SO 126 0 min 30 W/m 10,7 C 14,5 C 6,4 km/h (2 Bft)
09.05.2018 07:36 14,6 C 78 % 1008,5 hPa 0,0 l/m 2,2 km/h (1 Bft) O-NO 64 0 min 30 W/m 10,8 C 14,6 C 6,4 km/h (2 Bft)
09.05.2018 07:39 14,7 C 79 % 1008,5 hPa 0,0 l/m 2,0 km/h (1 Bft) SO 129 0 min 30 W/m 11,1 C 14,7 C 4,8 km/h (1 Bft)
09.05.2018 07:42 14,6 C 80 % 1008,5 hPa 0,0 l/m 3,1 km/h (1 Bft) SO 126 0 min 30 W/m 11,2 C 14,6 C 6,4 km/h (2 Bft)
09.05.2018 07:45 14,7 C 80 % 1008,5 hPa 0,0 l/m 2,1 km/h (1 Bft) SO 130 0 min 32 W/m 11,3 C 14,7 C 6,4 km/h (2 Bft)
09.05.2018 07:48 14,7 C 80 % 1008,5 hPa 0,0 l/m 2,5 km/h (1 Bft) NO 48 0 min 32 W/m 11,3 C 14,7 C 8,0 km/h (2 Bft)
09.05.2018 07:51 14,8 C 79 % 1008,5 hPa 0,0 l/m 3,2 km/h (1 Bft) S-SO 159 0 min 32 W/m 11,2 C 14,8 C 9,7 km/h (2 Bft)
09.05.2018 07:54 14,8 C 79 % 1008,6 hPa 0,0 l/m 3,7 km/h (1 Bft) N-NO 27 0 min 32 W/m 11,2 C 14,8 C 12,9 km/h (3 Bft)
09.05.2018 07:57 15,0 C 78 % 1008,6 hPa 0,0 l/m 4,2 km/h (1 Bft) SO 143 0 min 33 W/m 11,2 C 15,0 C 12,9 km/h (3 Bft)
09.05.2018 08:00 15,2 C 77 % 1008,6 hPa 0,0 l/m 5,9 km/h (2 Bft) O 87 0 min 35 W/m 11,2 C 15,2 C 12,9 km/h (3 Bft)
09.05.2018 08:03 15,4 C 75 % 1008,5 hPa 0,0 l/m 4,5 km/h (1 Bft) S-SO 152 0 min 35 W/m 11,0 C 15,4 C 12,9 km/h (3 Bft)
09.05.2018 08:06 15,7 C 74 % 1008,6 hPa 0,0 l/m 4,6 km/h (1 Bft) O 83 0 min 35 W/m 11,1 C 15,7 C 11,3 km/h (2 Bft)
09.05.2018 08:09 15,9 C 73 % 1008,5 hPa 0,0 l/m 5,1 km/h (1 Bft) SO 140 0 min 51 W/m 11,1 C 15,9 C 14,5 km/h (3 Bft)
09.05.2018 08:12 16,1 C 72 % 1008,6 hPa 0,0 l/m 3,7 km/h (1 Bft) S-SO 151 0 min 67 W/m 11,0 C 16,1 C 8,0 km/h (2 Bft)
09.05.2018 08:15 16,2 C 72 % 1008,5 hPa 0,0 l/m 3,0 km/h (1 Bft) O-SO 111 0 min 100 W/m 11,1 C 16,2 C 9,7 km/h (2 Bft)
09.05.2018 08:18 16,3 C 72 % 1008,5 hPa 0,0 l/m 3,3 km/h (1 Bft) S-SO 148 0 min 39 W/m 11,2 C 16,3 C 6,4 km/h (2 Bft)
09.05.2018 08:21 16,4 C 71 % 1008,5 hPa 0,0 l/m 3,7 km/h (1 Bft) O-SO 113 0 min 90 W/m 11,1 C 16,4 C 11,3 km/h (2 Bft)
09.05.2018 08:24 16,6 C 71 % 1008,5 hPa 0,0 l/m 5,2 km/h (1 Bft) SO 140 0 min 105 W/m 11,3 C 16,6 C 11,3 km/h (2 Bft)
09.05.2018 08:27 16,8 C 70 % 1008,4 hPa 0,0 l/m 5,3 km/h (1 Bft) S-SO 148 0 min 179 W/m 11,3 C 16,8 C 12,9 km/h (3 Bft)
09.05.2018 08:30 16,9 C 69 % 1008,4 hPa 0,0 l/m 3,9 km/h (1 Bft) S-SO 157 0 min 46 W/m 11,2 C 16,9 C 8,0 km/h (2 Bft)
09.05.2018 08:33 17,2 C 67 % 1008,4 hPa 0,0 l/m 7,5 km/h (2 Bft) O-SO 112 0 min 42 W/m 11,0 C 16,7 C 14,5 km/h (3 Bft)
09.05.2018 08:36 17,4 C 67 % 1008,4 hPa 0,0 l/m 5,0 km/h (1 Bft) S 185 0 min 44 W/m 11,2 C 17,4 C 11,3 km/h (2 Bft)
09.05.2018 08:39 17,6 C 66 % 1008,3 hPa 0,0 l/m 5,1 km/h (1 Bft) SO 131 0 min 44 W/m 11,2 C 17,6 C 12,9 km/h (3 Bft)
09.05.2018 08:42 17,8 C 66 % 1008,3 hPa 0,0 l/m 4,8 km/h (1 Bft) O-SO 119 0 min 46 W/m 11,4 C 17,8 C 11,3 km/h (2 Bft)
09.05.2018 08:45 17,8 C 67 % 1008,3 hPa 0,0 l/m 4,7 km/h (1 Bft) S-SO 168 0 min 47 W/m 11,6 C 17,8 C 12,9 km/h (3 Bft)
09.05.2018 08:48 17,9 C 66 % 1008,4 hPa 0,0 l/m 5,1 km/h (1 Bft) O-SO 107 0 min 62 W/m 11,5 C 17,9 C 14,5 km/h (3 Bft)
09.05.2018 08:51 18,2 C 64 % 1008,3 hPa 0,0 l/m 8,1 km/h (2 Bft) SO 128 3 min 367 W/m 11,3 C 17,4 C 14,5 km/h (3 Bft)
09.05.2018 08:54 18,4 C 64 % 1008,4 hPa 0,0 l/m 4,5 km/h (1 Bft) S-SO 150 3 min 378 W/m 11,5 C 18,4 C 11,3 km/h (2 Bft)
09.05.2018 08:57 18,4 C 68 % 1008,4 hPa 0,0 l/m 4,3 km/h (1 Bft) S-SO 166 3 min 383 W/m 12,4 C 18,4 C 11,3 km/h (2 Bft)
09.05.2018 09:00 18,4 C 69 % 1008,4 hPa 0,0 l/m 5,3 km/h (1 Bft) O-NO 59 3 min 394 W/m 12,6 C 18,4 C 9,7 km/h (2 Bft)
09.05.2018 09:03 18,5 C 69 % 1008,4 hPa 0,0 l/m 2,9 km/h (1 Bft) SO 129 3 min 399 W/m 12,7 C 18,5 C 6,4 km/h (2 Bft)
09.05.2018 09:06 18,7 C 68 % 1008,3 hPa 0,0 l/m 3,8 km/h (1 Bft) O 99 3 min 408 W/m 12,7 C 18,7 C 11,3 km/h (2 Bft)
09.05.2018 09:09 18,7 C 68 % 1008,4 hPa 0,0 l/m 5,4 km/h (2 Bft) O-NO 65 3 min 415 W/m 12,7 C 18,7 C 11,3 km/h (2 Bft)
09.05.2018 09:12 18,9 C 68 % 1008,4 hPa 0,0 l/m 3,5 km/h (1 Bft) N-NW 331 3 min 422 W/m 12,9 C 18,9 C 8,0 km/h (2 Bft)
09.05.2018 09:15 18,9 C 68 % 1008,4 hPa 0,0 l/m 4,8 km/h (1 Bft) O 100 3 min 420 W/m 12,9 C 18,9 C 8,0 km/h (2 Bft)
09.05.2018 09:18 19,0 C 68 % 1008,5 hPa 0,0 l/m 3,0 km/h (1 Bft) O-NO 66 3 min 410 W/m 13,0 C 19,0 C 14,5 km/h (3 Bft)
09.05.2018 09:21 19,1 C 66 % 1008,5 hPa 0,0 l/m 5,7 km/h (2 Bft) NO 53 3 min 396 W/m 12,6 C 19,1 C 14,5 km/h (3 Bft)
09.05.2018 09:24 19,3 C 66 % 1008,5 hPa 0,0 l/m 3,5 km/h (1 Bft) O-NO 65 3 min 373 W/m 12,8 C 19,3 C 9,7 km/h (2 Bft)
09.05.2018 09:27 19,4 C 67 % 1008,5 hPa 0,0 l/m 5,1 km/h (1 Bft) O-SO 117 3 min 367 W/m 13,1 C 19,4 C 11,3 km/h (2 Bft)
09.05.2018 09:30 19,4 C 69 % 1008,5 hPa 0,0 l/m 2,5 km/h (1 Bft) O 98 3 min 376 W/m 13,6 C 19,4 C 4,8 km/h (1 Bft)
09.05.2018 09:33 19,4 C 68 % 1008,5 hPa 0,0 l/m 4,5 km/h (1 Bft) O-SO 108 3 min 388 W/m 13,3 C 19,4 C 9,7 km/h (2 Bft)
09.05.2018 09:36 19,6 C 66 % 1008,4 hPa 0,0 l/m 5,1 km/h (1 Bft) NO 47 3 min 404 W/m 13,1 C 19,6 C 8,0 km/h (2 Bft)
09.05.2018 09:39 19,6 C 65 % 1008,5 hPa 0,0 l/m 5,0 km/h (1 Bft) O-SO 115 3 min 408 W/m 12,8 C 19,6 C 11,3 km/h (2 Bft)
09.05.2018 09:42 19,8 C 67 % 1008,5 hPa 0,0 l/m 5,8 km/h (2 Bft) O-NO 68 3 min 406 W/m 13,5 C 19,8 C 11,3 km/h (2 Bft)
09.05.2018 09:45 19,9 C 66 % 1008,5 hPa 0,0 l/m 5,2 km/h (1 Bft) O 84 3 min 404 W/m 13,4 C 19,9 C 12,9 km/h (3 Bft)
09.05.2018 09:48 19,9 C 68 % 1008,6 hPa 0,0 l/m 4,1 km/h (1 Bft) O-NO 63 3 min 401 W/m 13,8 C 19,9 C 9,7 km/h (2 Bft)
09.05.2018 09:51 19,9 C 68 % 1008,5 hPa 0,0 l/m 3,1 km/h (1 Bft) NO 38 3 min 403 W/m 13,8 C 19,9 C 9,7 km/h (2 Bft)
09.05.2018 09:54 20,0 C 68 % 1008,6 hPa 0,0 l/m 3,8 km/h (1 Bft) O-NO 65 3 min 410 W/m 13,9 C 20,0 C 6,4 km/h (2 Bft)
09.05.2018 09:57 20,1 C 69 % 1008,6 hPa 0,0 l/m 3,0 km/h (1 Bft) O-NO 73 3 min 415 W/m 14,2 C 20,1 C 11,3 km/h (2 Bft)
09.05.2018 10:00 20,3 C 68 % 1008,6 hPa 0,0 l/m 3,3 km/h (1 Bft) O-NO 77 3 min 438 W/m 14,2 C 20,3 C 9,7 km/h (2 Bft)
09.05.2018 10:03 20,4 C 68 % 1008,6 hPa 0,0 l/m 3,0 km/h (1 Bft) SO 128 3 min 455 W/m 14,3 C 20,4 C 14,5 km/h (3 Bft)
09.05.2018 10:06 21,1 C 60 % 1008,6 hPa 0,0 l/m 7,9 km/h (2 Bft) S-SO 151 3 min 473 W/m 13,0 C 20,5 C 14,5 km/h (3 Bft)
09.05.2018 10:09 21,4 C 57 % 1008,6 hPa 0,0 l/m 6,2 km/h (2 Bft) SO 140 3 min 501 W/m 12,5 C 21,4 C 16,1 km/h (3 Bft)
09.05.2018 10:12 21,9 C 54 % 1008,6 hPa 0,0 l/m 8,4 km/h (2 Bft) SO 124 3 min 527 W/m 12,2 C 21,2 C 16,1 km/h (3 Bft)
09.05.2018 10:15 22,2 C 54 % 1008,6 hPa 0,0 l/m 6,6 km/h (2 Bft) O-NO 76 3 min 547 W/m 12,4 C 22,1 C 20,9 km/h (4 Bft)
09.05.2018 10:18 22,3 C 55 % 1008,6 hPa 0,0 l/m 7,2 km/h (2 Bft) SO 128 3 min 566 W/m 12,8 C 22,0 C 19,3 km/h (3 Bft)
09.05.2018 10:21 22,4 C 52 % 1008,5 hPa 0,0 l/m 6,6 km/h (2 Bft) O-SO 103 3 min 573 W/m 12,1 C 22,3 C 16,1 km/h (3 Bft)
09.05.2018 10:24 22,6 C 52 % 1008,6 hPa 0,0 l/m 6,8 km/h (2 Bft) S-SW 213 3 min 582 W/m 12,2 C 22,5 C 12,9 km/h (3 Bft)
09.05.2018 10:27 22,7 C 52 % 1008,6 hPa 0,0 l/m 7,3 km/h (2 Bft) NO 55 3 min 584 W/m 12,3 C 22,4 C 17,7 km/h (3 Bft)
09.05.2018 10:30 22,8 C 52 % 1008,5 hPa 0,0 l/m 7,4 km/h (2 Bft) SO 141 3 min 592 W/m 12,4 C 22,5 C 16,1 km/h (3 Bft)
09.05.2018 10:33 23,1 C 52 % 1008,5 hPa 0,0 l/m 6,4 km/h (2 Bft) SO 132 3 min 599 W/m 12,7 C 23,1 C 16,1 km/h (3 Bft)
09.05.2018 10:36 23,3 C 52 % 1008,5 hPa 0,0 l/m 5,2 km/h (1 Bft) O 86 3 min 605 W/m 12,9 C 23,3 C 17,7 km/h (3 Bft)
09.05.2018 10:39 23,5 C 49 % 1008,5 hPa 0,0 l/m 7,4 km/h (2 Bft) O-SO 111 3 min 608 W/m 12,2 C 23,2 C 14,5 km/h (3 Bft)
09.05.2018 10:42 23,7 C 51 % 1008,5 hPa 0,0 l/m 7,5 km/h (2 Bft) S-SO 152 3 min 615 W/m 13,0 C 23,4 C 12,9 km/h (3 Bft)
09.05.2018 10:45 23,7 C 52 % 1008,6 hPa 0,0 l/m 6,4 km/h (2 Bft) O-SO 118 3 min 617 W/m 13,2 C 23,7 C 12,9 km/h (3 Bft)
09.05.2018 10:48 23,7 C 49 % 1008,5 hPa 0,0 l/m 5,1 km/h (1 Bft) NO 55 3 min 624 W/m 12,3 C 23,7 C 16,1 km/h (3 Bft)
09.05.2018 10:51 23,8 C 52 % 1008,6 hPa 0,0 l/m 5,3 km/h (1 Bft) SO 134 3 min 629 W/m 13,3 C 23,8 C 11,3 km/h (2 Bft)
09.05.2018 10:54 24,0 C 50 % 1008,5 hPa 0,0 l/m 6,9 km/h (2 Bft) O 86 3 min 636 W/m 12,9 C 23,9 C 12,9 km/h (3 Bft)
09.05.2018 10:57 24,2 C 48 % 1008,5 hPa 0,0 l/m 6,8 km/h (2 Bft) S-SO 167 3 min 642 W/m 12,5 C 24,1 C 17,7 km/h (3 Bft)
09.05.2018 11:00 24,4 C 51 % 1008,5 hPa 0,0 l/m 5,9 km/h (2 Bft) O-SO 121 3 min 645 W/m 13,6 C 24,4 C 14,5 km/h (3 Bft)
09.05.2018 11:03 24,5 C 49 % 1008,4 hPa 0,0 l/m 6,0 km/h (2 Bft) O-SO 115 3 min 647 W/m 13,1 C 24,5 C 14,5 km/h (3 Bft)
09.05.2018 11:06 24,6 C 48 % 1008,4 hPa 0,0 l/m 7,1 km/h (2 Bft) S 184 3 min 654 W/m 12,8 C 24,4 C 16,1 km/h (3 Bft)
09.05.2018 11:09 24,7 C 49 % 1008,5 hPa 0,0 l/m 4,1 km/h (1 Bft) O-SO 108 3 min 659 W/m 13,3 C 24,7 C 12,9 km/h (3 Bft)
09.05.2018 11:12 24,8 C 50 % 1008,4 hPa 0,0 l/m 5,2 km/h (1 Bft) O 101 3 min 664 W/m 13,7 C 24,8 C 11,3 km/h (2 Bft)
09.05.2018 11:15 24,9 C 49 % 1008,4 hPa 0,0 l/m 4,0 km/h (1 Bft) O-NO 59 3 min 670 W/m 13,4 C 24,9 C 11,3 km/h (2 Bft)
09.05.2018 11:18 24,9 C 49 % 1008,3 hPa 0,0 l/m 7,2 km/h (2 Bft) S-SO 147 3 min 675 W/m 13,4 C 24,7 C 22,5 km/h (4 Bft)
09.05.2018 11:21 24,8 C 48 % 1008,3 hPa 0,0 l/m 8,2 km/h (2 Bft) SO 144 3 min 680 W/m 13,0 C 24,3 C 20,9 km/h (4 Bft)
09.05.2018 11:24 24,9 C 45 % 1008,2 hPa 0,0 l/m 8,8 km/h (2 Bft) O-SO 120 3 min 686 W/m 12,1 C 24,3 C 20,9 km/h (4 Bft)
09.05.2018 11:27 25,1 C 46 % 1008,2 hPa 0,0 l/m 5,5 km/h (2 Bft) O-NO 58 3 min 686 W/m 12,7 C 25,1 C 12,9 km/h (3 Bft)
09.05.2018 11:30 25,2 C 47 % 1008,2 hPa 0,0 l/m 4,5 km/h (1 Bft) O-NO 67 3 min 691 W/m 13,1 C 25,2 C 9,7 km/h (2 Bft)
09.05.2018 11:33 25,3 C 43 % 1008,2 hPa 0,0 l/m 9,3 km/h (2 Bft) O 101 3 min 698 W/m 11,8 C 24,6 C 22,5 km/h (4 Bft)
09.05.2018 11:36 25,3 C 46 % 1008,3 hPa 0,0 l/m 4,8 km/h (1 Bft) O 82 3 min 698 W/m 12,8 C 25,3 C 14,5 km/h (3 Bft)
09.05.2018 11:39 25,4 C 47 % 1008,2 hPa 0,0 l/m 6,1 km/h (2 Bft) SO 130 3 min 705 W/m 13,3 C 25,4 C 14,5 km/h (3 Bft)
09.05.2018 11:42 25,7 C 43 % 1008,3 hPa 0,0 l/m 8,1 km/h (2 Bft) O-SO 115 3 min 705 W/m 12,2 C 25,3 C 16,1 km/h (3 Bft)
09.05.2018 11:45 25,7 C 46 % 1008,2 hPa 0,0 l/m 8,1 km/h (2 Bft) O-SO 117 3 min 710 W/m 13,2 C 25,3 C 19,3 km/h (3 Bft)
09.05.2018 11:48 25,7 C 44 % 1008,2 hPa 0,0 l/m 8,5 km/h (2 Bft) S-SO 153 3 min 714 W/m 12,5 C 25,2 C 20,9 km/h (4 Bft)
09.05.2018 11:51 25,7 C 42 % 1008,2 hPa 0,0 l/m 9,3 km/h (2 Bft) O-NO 59 3 min 707 W/m 11,8 C 25,1 C 19,3 km/h (3 Bft)
09.05.2018 11:54 25,8 C 46 % 1008,1 hPa 0,0 l/m 4,0 km/h (1 Bft) NO 53 3 min 696 W/m 13,3 C 25,8 C 11,3 km/h (2 Bft)
09.05.2018 11:57 25,9 C 43 % 1008,1 hPa 0,0 l/m 8,3 km/h (2 Bft) SO 145 3 min 682 W/m 12,3 C 25,5 C 16,1 km/h (3 Bft)
09.05.2018 12:00 26,1 C 43 % 1008,2 hPa 0,0 l/m 6,8 km/h (2 Bft) O-NO 71 3 min 664 W/m 12,5 C 26,0 C 16,1 km/h (3 Bft)
09.05.2018 12:03 26,1 C 43 % 1008,1 hPa 0,0 l/m 6,4 km/h (2 Bft) S 190 3 min 647 W/m 12,5 C 26,1 C 14,5 km/h (3 Bft)
09.05.2018 12:06 26,2 C 43 % 1008,1 hPa 0,0 l/m 7,3 km/h (2 Bft) SO 144 3 min 635 W/m 12,6 C 26,0 C 14,5 km/h (3 Bft)
09.05.2018 12:09 26,3 C 42 % 1008,1 hPa 0,0 l/m 5,3 km/h (1 Bft) SO 130 3 min 610 W/m 12,3 C 26,3 C 9,7 km/h (2 Bft)
09.05.2018 12:12 26,3 C 40 % 1008,1 hPa 0,0 l/m 7,8 km/h (2 Bft) SO 130 3 min 592 W/m 11,6 C 26,0 C 20,9 km/h (4 Bft)
09.05.2018 12:15 26,3 C 41 % 1008,1 hPa 0,0 l/m 6,5 km/h (2 Bft) S-SO 158 3 min 582 W/m 12,0 C 26,3 C 14,5 km/h (3 Bft)
09.05.2018 12:18 26,5 C 40 % 1008,1 hPa 0,0 l/m 9,1 km/h (2 Bft) O 84 3 min 575 W/m 11,8 C 26,0 C 19,3 km/h (3 Bft)
09.05.2018 12:21 26,5 C 40 % 1008,1 hPa 0,0 l/m 8,6 km/h (2 Bft) S 174 3 min 580 W/m 11,8 C 26,1 C 14,5 km/h (3 Bft)
09.05.2018 12:24 26,6 C 43 % 1008,1 hPa 0,0 l/m 8,8 km/h (2 Bft) S-SO 156 3 min 587 W/m 13,0 C 26,1 C 19,3 km/h (3 Bft)
09.05.2018 12:27 26,4 C 40 % 1008,0 hPa 0,0 l/m 11,7 km/h (2 Bft) SO 134 3 min 605 W/m 11,7 C 25,4 C 19,3 km/h (3 Bft)
09.05.2018 12:30 26,4 C 41 % 1008,0 hPa 0,0 l/m 9,8 km/h (2 Bft) O 89 3 min 621 W/m 12,1 C 25,7 C 20,9 km/h (4 Bft)
09.05.2018 12:33 26,5 C 42 % 1007,9 hPa 0,0 l/m 7,4 km/h (2 Bft) S-SO 168 3 min 647 W/m 12,5 C 26,3 C 14,5 km/h (3 Bft)
09.05.2018 12:36 26,4 C 42 % 1007,9 hPa 0,0 l/m 8,3 km/h (2 Bft) O-NO 63 3 min 666 W/m 12,4 C 26,0 C 19,3 km/h (3 Bft)
09.05.2018 12:39 26,6 C 41 % 1007,9 hPa 0,0 l/m 7,5 km/h (2 Bft) SO 135 3 min 696 W/m 12,2 C 26,4 C 14,5 km/h (3 Bft)
09.05.2018 12:42 26,6 C 41 % 1007,9 hPa 0,0 l/m 5,7 km/h (2 Bft) O-NO 59 3 min 717 W/m 12,2 C 26,6 C 12,9 km/h (3 Bft)
09.05.2018 12:45 26,9 C 42 % 1008,0 hPa 0,0 l/m 3,0 km/h (1 Bft) S 173 3 min 737 W/m 12,9 C 26,9 C 4,8 km/h (1 Bft)
09.05.2018 12:48 27,1 C 42 % 1007,9 hPa 0,0 l/m 6,2 km/h (2 Bft) O 96 3 min 749 W/m 13,1 C 27,1 C 16,1 km/h (3 Bft)
09.05.2018 12:51 26,9 C 40 % 1007,9 hPa 0,0 l/m 8,2 km/h (2 Bft) SO 141 3 min 759 W/m 12,1 C 26,6 C 19,3 km/h (3 Bft)
09.05.2018 12:54 27,1 C 39 % 1007,9 hPa 0,0 l/m 8,0 km/h (2 Bft) S 183 3 min 763 W/m 11,9 C 26,8 C 16,1 km/h (3 Bft)
09.05.2018 12:57 27,2 C 39 % 1007,8 hPa 0,0 l/m 5,6 km/h (2 Bft) SW 230 3 min 763 W/m 12,0 C 27,2 C 11,3 km/h (2 Bft)
09.05.2018 13:00 27,1 C 38 % 1007,8 hPa 0,0 l/m 9,1 km/h (2 Bft) O 96 3 min 770 W/m 11,5 C 26,6 C 16,1 km/h (3 Bft)
09.05.2018 13:03 27,1 C 40 % 1007,8 hPa 0,0 l/m 10,1 km/h (2 Bft) SO 127 3 min 770 W/m 12,3 C 26,5 C 19,3 km/h (3 Bft)
09.05.2018 13:06 27,2 C 38 % 1007,7 hPa 0,0 l/m 10,1 km/h (2 Bft) S-SO 167 3 min 770 W/m 11,6 C 26,6 C 17,7 km/h (3 Bft)
09.05.2018 13:09 27,3 C 38 % 1007,7 hPa 0,0 l/m 7,9 km/h (2 Bft) O-SO 123 3 min 772 W/m 11,7 C 27,0 C 14,5 km/h (3 Bft)
09.05.2018 13:12 27,3 C 40 % 1007,7 hPa 0,0 l/m 7,4 km/h (2 Bft) S-SO 161 3 min 765 W/m 12,5 C 27,1 C 14,5 km/h (3 Bft)
09.05.2018 13:15 27,4 C 37 % 1007,7 hPa 0,0 l/m 10,7 km/h (2 Bft) S 174 3 min 768 W/m 11,4 C 26,7 C 19,3 km/h (3 Bft)
09.05.2018 13:18 27,5 C 38 % 1007,7 hPa 0,0 l/m 6,5 km/h (2 Bft) O-SO 102 3 min 772 W/m 11,9 C 27,5 C 14,5 km/h (3 Bft)
09.05.2018 13:21 27,8 C 37 % 1007,7 hPa 0,0 l/m 7,8 km/h (2 Bft) O-SO 122 3 min 770 W/m 11,8 C 27,6 C 14,5 km/h (3 Bft)
09.05.2018 13:24 27,9 C 37 % 1007,7 hPa 0,0 l/m 9,6 km/h (2 Bft) S 173 3 min 759 W/m 11,8 C 27,4 C 16,1 km/h (3 Bft)
09.05.2018 13:27 28,0 C 36 % 1007,7 hPa 0,0 l/m 5,9 km/h (2 Bft) S-SO 158 3 min 765 W/m 11,5 C 28,0 C 12,9 km/h (3 Bft)
09.05.2018 13:30 27,8 C 35 % 1007,6 hPa 0,0 l/m 8,6 km/h (2 Bft) O-NO 69 3 min 765 W/m 10,9 C 27,5 C 16,1 km/h (3 Bft)
09.05.2018 13:33 27,6 C 35 % 1007,6 hPa 0,0 l/m 7,8 km/h (2 Bft) SO 134 3 min 765 W/m 10,7 C 27,4 C 19,3 km/h (3 Bft)
09.05.2018 13:36 27,6 C 37 % 1007,5 hPa 0,0 l/m 5,8 km/h (2 Bft) S-SO 155 3 min 759 W/m 11,6 C 27,6 C 14,5 km/h (3 Bft)
09.05.2018 13:39 27,8 C 36 % 1007,5 hPa 0,0 l/m 6,9 km/h (2 Bft) S-SO 158 3 min 758 W/m 11,3 C 27,7 C 17,7 km/h (3 Bft)
09.05.2018 13:42 27,9 C 35 % 1007,5 hPa 0,0 l/m 7,1 km/h (2 Bft) SO 125 3 min 761 W/m 11,0 C 27,8 C 16,1 km/h (3 Bft)
09.05.2018 13:45 27,8 C 34 % 1007,6 hPa 0,0 l/m 7,0 km/h (2 Bft) S-SO 161 3 min 759 W/m 10,5 C 27,7 C 14,5 km/h (3 Bft)
09.05.2018 13:48 27,7 C 35 % 1007,5 hPa 0,0 l/m 8,6 km/h (2 Bft) O-SO 111 3 min 759 W/m 10,8 C 27,3 C 16,1 km/h (3 Bft)
09.05.2018 13:51 27,8 C 36 % 1007,5 hPa 0,0 l/m 8,9 km/h (2 Bft) O-SO 109 3 min 758 W/m 11,3 C 27,4 C 16,1 km/h (3 Bft)
09.05.2018 13:54 27,8 C 35 % 1007,5 hPa 0,0 l/m 9,8 km/h (2 Bft) O 101 3 min 759 W/m 10,9 C 27,3 C 16,1 km/h (3 Bft)
09.05.2018 13:57 27,9 C 35 % 1007,5 hPa 0,0 l/m 6,5 km/h (2 Bft) SO 128 3 min 758 W/m 11,0 C 27,9 C 14,5 km/h (3 Bft)
09.05.2018 14:00 28,0 C 36 % 1007,5 hPa 0,0 l/m 7,4 km/h (2 Bft) O 96 3 min 756 W/m 11,5 C 27,8 C 14,5 km/h (3 Bft)
09.05.2018 14:03 27,9 C 34 % 1007,3 hPa 0,0 l/m 7,8 km/h (2 Bft) O 88 3 min 754 W/m 10,6 C 27,7 C 16,1 km/h (3 Bft)
09.05.2018 14:06 27,9 C 35 % 1007,4 hPa 0,0 l/m 10,3 km/h (2 Bft) SO 124 3 min 754 W/m 11,0 C 27,3 C 19,3 km/h (3 Bft)
09.05.2018 14:09 27,7 C 35 % 1007,3 hPa 0,0 l/m 9,8 km/h (2 Bft) SW 217 3 min 745 W/m 10,8 C 27,2 C 19,3 km/h (3 Bft)
09.05.2018 14:12 27,7 C 36 % 1007,4 hPa 0,0 l/m 9,4 km/h (2 Bft) S-SO 167 3 min 745 W/m 11,3 C 27,2 C 22,5 km/h (4 Bft)
09.05.2018 14:15 27,7 C 35 % 1007,3 hPa 0,0 l/m 7,2 km/h (2 Bft) SO 135 3 min 744 W/m 10,8 C 27,6 C 14,5 km/h (3 Bft)
09.05.2018 14:18 27,8 C 35 % 1007,3 hPa 0,0 l/m 11,0 km/h (2 Bft) O-SO 123 3 min 744 W/m 10,9 C 27,1 C 27,4 km/h (5 Bft)
09.05.2018 14:21 27,9 C 35 % 1007,3 hPa 0,0 l/m 8,8 km/h (2 Bft) S-SO 165 3 min 740 W/m 11,0 C 27,5 C 19,3 km/h (3 Bft)
09.05.2018 14:24 27,8 C 35 % 1007,2 hPa 0,0 l/m 9,5 km/h (2 Bft) O-SO 119 3 min 738 W/m 10,9 C 27,3 C 17,7 km/h (3 Bft)
09.05.2018 14:27 28,0 C 34 % 1007,3 hPa 0,0 l/m 10,9 km/h (2 Bft) S-SO 148 3 min 738 W/m 10,7 C 27,4 C 22,5 km/h (4 Bft)
09.05.2018 14:30 28,0 C 35 % 1007,2 hPa 0,0 l/m 10,0 km/h (2 Bft) S-SW 200 3 min 733 W/m 11,1 C 27,5 C 19,3 km/h (3 Bft)
09.05.2018 14:33 28,3 C 34 % 1007,1 hPa 0,0 l/m 6,6 km/h (2 Bft) SO 132 3 min 729 W/m 10,9 C 28,3 C 11,3 km/h (2 Bft)
09.05.2018 14:36 28,5 C 36 % 1007,1 hPa 0,0 l/m 4,9 km/h (1 Bft) S 191 3 min 726 W/m 12,0 C 28,5 C 14,5 km/h (3 Bft)
09.05.2018 14:39 28,3 C 34 % 1007,1 hPa 0,0 l/m 9,2 km/h (2 Bft) S 170 3 min 728 W/m 10,9 C 27,9 C 19,3 km/h (3 Bft)
09.05.2018 14:42 28,1 C 33 % 1007,0 hPa 0,0 l/m 10,6 km/h (2 Bft) O-SO 109 3 min 724 W/m 10,3 C 27,5 C 22,5 km/h (4 Bft)
09.05.2018 14:45 28,2 C 37 % 1007,0 hPa 0,0 l/m 8,1 km/h (2 Bft) W-SW 245 3 min 719 W/m 12,1 C 27,9 C 16,1 km/h (3 Bft)
09.05.2018 14:48 28,4 C 35 % 1007,0 hPa 0,0 l/m 5,3 km/h (1 Bft) O-SO 110 3 min 707 W/m 11,4 C 28,4 C 19,3 km/h (3 Bft)
09.05.2018 14:51 28,4 C 35 % 1007,0 hPa 0,0 l/m 11,1 km/h (2 Bft) S-SO 156 3 min 707 W/m 11,4 C 27,8 C 22,5 km/h (4 Bft)
09.05.2018 14:54 28,3 C 34 % 1007,0 hPa 0,0 l/m 9,7 km/h (2 Bft) S-SO 158 3 min 708 W/m 10,9 C 27,8 C 20,9 km/h (4 Bft)
09.05.2018 14:57 28,3 C 34 % 1007,0 hPa 0,0 l/m 9,3 km/h (2 Bft) O-SO 111 3 min 696 W/m 10,9 C 27,9 C 19,3 km/h (3 Bft)
09.05.2018 15:00 28,3 C 36 % 1006,9 hPa 0,0 l/m 9,3 km/h (2 Bft) SW 215 3 min 693 W/m 11,8 C 27,9 C 19,3 km/h (3 Bft)
09.05.2018 15:03 28,6 C 35 % 1006,9 hPa 0,0 l/m 9,9 km/h (2 Bft) O-SO 115 3 min 689 W/m 11,6 C 28,2 C 17,7 km/h (3 Bft)
09.05.2018 15:06 28,6 C 36 % 1006,9 hPa 0,0 l/m 7,5 km/h (2 Bft) S-SO 150 3 min 687 W/m 12,0 C 28,4 C 16,1 km/h (3 Bft)
09.05.2018 15:09 28,4 C 35 % 1006,9 hPa 0,0 l/m 8,9 km/h (2 Bft) S 174 3 min 689 W/m 11,4 C 28,1 C 17,7 km/h (3 Bft)
09.05.2018 15:12 28,4 C 33 % 1006,8 hPa 0,0 l/m 8,6 km/h (2 Bft) S-SW 194 3 min 687 W/m 10,6 C 28,1 C 17,7 km/h (3 Bft)
09.05.2018 15:15 28,4 C 34 % 1006,8 hPa 0,0 l/m 6,8 km/h (2 Bft) S-SO 163 3 min 682 W/m 11,0 C 28,3 C 12,9 km/h (3 Bft)
09.05.2018 15:18 28,6 C 35 % 1006,8 hPa 0,0 l/m 5,7 km/h (2 Bft) S-SO 147 3 min 673 W/m 11,6 C 28,6 C 12,9 km/h (3 Bft)
09.05.2018 15:21 28,7 C 35 % 1006,8 hPa 0,0 l/m 6,1 km/h (2 Bft) S-SO 155 3 min 666 W/m 11,7 C 28,7 C 16,1 km/h (3 Bft)
09.05.2018 15:24 28,4 C 37 % 1006,7 hPa 0,0 l/m 8,7 km/h (2 Bft) O-SO 105 3 min 663 W/m 12,3 C 28,1 C 16,1 km/h (3 Bft)
09.05.2018 15:27 28,4 C 37 % 1006,7 hPa 0,0 l/m 3,1 km/h (1 Bft) NO 49 3 min 661 W/m 12,3 C 28,4 C 11,3 km/h (2 Bft)
09.05.2018 15:30 28,4 C 37 % 1006,7 hPa 0,0 l/m 3,8 km/h (1 Bft) N 10 3 min 659 W/m 12,3 C 28,4 C 8,0 km/h (2 Bft)
09.05.2018 15:33 28,4 C 38 % 1006,7 hPa 0,0 l/m 6,1 km/h (2 Bft) SO 126 3 min 645 W/m 12,7 C 28,4 C 11,3 km/h (2 Bft)
09.05.2018 15:36 28,4 C 40 % 1006,5 hPa 0,0 l/m 3,8 km/h (1 Bft) SO 130 3 min 642 W/m 13,5 C 28,4 C 14,5 km/h (3 Bft)
09.05.2018 15:39 28,4 C 36 % 1006,6 hPa 0,0 l/m 6,6 km/h (2 Bft) S-SO 163 3 min 636 W/m 11,9 C 28,4 C 14,5 km/h (3 Bft)
09.05.2018 15:42 28,6 C 34 % 1006,5 hPa 0,0 l/m 7,3 km/h (2 Bft) S-SO 153 3 min 633 W/m 11,2 C 28,5 C 17,7 km/h (3 Bft)
09.05.2018 15:45 28,7 C 34 % 1006,5 hPa 0,0 l/m 10,1 km/h (2 Bft) S 174 3 min 631 W/m 11,3 C 28,2 C 24,1 km/h (4 Bft)
09.05.2018 15:48 28,6 C 35 % 1006,5 hPa 0,0 l/m 10,1 km/h (2 Bft) S-SO 167 3 min 626 W/m 11,6 C 28,1 C 22,5 km/h (4 Bft)
09.05.2018 15:51 28,6 C 34 % 1006,5 hPa 0,0 l/m 12,6 km/h (3 Bft) S-SO 153 3 min 617 W/m 11,2 C 27,9 C 22,5 km/h (4 Bft)
09.05.2018 15:54 28,4 C 34 % 1006,5 hPa 0,0 l/m 8,3 km/h (2 Bft) S-SO 165 3 min 613 W/m 11,0 C 28,1 C 14,5 km/h (3 Bft)
09.05.2018 15:57 28,3 C 34 % 1006,3 hPa 0,0 l/m 8,5 km/h (2 Bft) S 170 3 min 610 W/m 10,9 C 28,0 C 16,1 km/h (3 Bft)
09.05.2018 16:00 28,3 C 35 % 1006,3 hPa 0,0 l/m 6,1 km/h (2 Bft) S-SO 155 3 min 606 W/m 11,4 C 28,3 C 11,3 km/h (2 Bft)
09.05.2018 16:03 28,3 C 34 % 1006,4 hPa 0,0 l/m 8,6 km/h (2 Bft) S-SO 166 3 min 603 W/m 10,9 C 28,0 C 17,7 km/h (3 Bft)
09.05.2018 16:06 28,4 C 34 % 1006,2 hPa 0,0 l/m 5,9 km/h (2 Bft) S 180 3 min 594 W/m 11,0 C 28,4 C 14,5 km/h (3 Bft)
09.05.2018 16:09 28,3 C 36 % 1006,3 hPa 0,0 l/m 3,2 km/h (1 Bft) O-NO 74 3 min 580 W/m 11,8 C 28,3 C 6,4 km/h (2 Bft)
09.05.2018 16:12 28,5 C 35 % 1006,2 hPa 0,0 l/m 6,2 km/h (2 Bft) S-SO 167 3 min 580 W/m 11,5 C 28,5 C 14,5 km/h (3 Bft)
09.05.2018 16:15 28,7 C 35 % 1006,2 hPa 0,0 l/m 6,3 km/h (2 Bft) SO 131 3 min 575 W/m 11,7 C 28,7 C 16,1 km/h (3 Bft)
09.05.2018 16:18 28,6 C 35 % 1006,2 hPa 0,0 l/m 4,9 km/h (1 Bft) SO 131 3 min 570 W/m 11,6 C 28,6 C 11,3 km/h (2 Bft)
09.05.2018 16:21 28,5 C 34 % 1006,1 hPa 0,0 l/m 7,3 km/h (2 Bft) O-SO 117 3 min 559 W/m 11,1 C 28,4 C 17,7 km/h (3 Bft)
09.05.2018 16:24 28,6 C 36 % 1006,1 hPa 0,0 l/m 8,0 km/h (2 Bft) S 172 3 min 568 W/m 12,0 C 28,4 C 14,5 km/h (3 Bft)
09.05.2018 16:27 28,8 C 34 % 1006,0 hPa 0,0 l/m 9,8 km/h (2 Bft) S 169 3 min 568 W/m 11,4 C 28,4 C 22,5 km/h (4 Bft)
09.05.2018 16:30 28,8 C 34 % 1006,0 hPa 0,0 l/m 4,4 km/h (1 Bft) SO 136 3 min 557 W/m 11,4 C 28,8 C 11,3 km/h (2 Bft)
09.05.2018 16:33 28,7 C 35 % 1006,0 hPa 0,0 l/m 3,4 km/h (1 Bft) S-SO 157 3 min 538 W/m 11,7 C 28,7 C 8,0 km/h (2 Bft)
09.05.2018 16:36 28,9 C 37 % 1005,9 hPa 0,0 l/m 6,4 km/h (2 Bft) S-SO 152 3 min 540 W/m 12,7 C 28,9 C 11,3 km/h (2 Bft)
09.05.2018 16:39 29,0 C 35 % 1005,9 hPa 0,0 l/m 8,3 km/h (2 Bft) S-SO 159 3 min 536 W/m 12,0 C 28,8 C 14,5 km/h (3 Bft)
09.05.2018 16:42 28,9 C 34 % 1005,9 hPa 0,0 l/m 8,1 km/h (2 Bft) S 177 3 min 529 W/m 11,4 C 28,7 C 17,7 km/h (3 Bft)
09.05.2018 16:45 28,8 C 34 % 1005,8 hPa 0,0 l/m 7,6 km/h (2 Bft) SO 131 3 min 533 W/m 11,4 C 28,6 C 16,1 km/h (3 Bft)
09.05.2018 16:48 28,7 C 36 % 1005,9 hPa 0,0 l/m 4,1 km/h (1 Bft) O-SO 122 3 min 536 W/m 12,1 C 28,7 C 9,7 km/h (2 Bft)
09.05.2018 16:51 28,8 C 34 % 1005,9 hPa 0,0 l/m 5,7 km/h (2 Bft) SO 134 3 min 547 W/m 11,4 C 28,8 C 12,9 km/h (3 Bft)
09.05.2018 16:54 28,7 C 38 % 1005,8 hPa 0,0 l/m 5,1 km/h (1 Bft) O 94 3 min 555 W/m 13,0 C 28,7 C 14,5 km/h (3 Bft)
09.05.2018 16:57 28,2 C 39 % 1005,8 hPa 0,0 l/m 6,3 km/h (2 Bft) O 95 3 min 563 W/m 12,9 C 28,2 C 12,9 km/h (3 Bft)
09.05.2018 17:00 28,1 C 43 % 1005,8 hPa 0,0 l/m 2,4 km/h (1 Bft) SO 132 3 min 573 W/m 14,3 C 28,1 C 6,4 km/h (2 Bft)
09.05.2018 17:03 28,0 C 42 % 1005,8 hPa 0,0 l/m 5,6 km/h (2 Bft) O-SO 107 3 min 584 W/m 13,9 C 28,0 C 12,9 km/h (3 Bft)
09.05.2018 17:06 28,1 C 44 % 1005,8 hPa 0,0 l/m 5,5 km/h (2 Bft) N-NO 28 3 min 571 W/m 14,7 C 28,1 C 12,9 km/h (3 Bft)
09.05.2018 17:09 27,9 C 44 % 1005,8 hPa 0,0 l/m 3,4 km/h (1 Bft) O-SO 103 3 min 552 W/m 14,5 C 27,9 C 9,7 km/h (2 Bft)
09.05.2018 17:12 27,7 C 45 % 1005,8 hPa 0,0 l/m 7,3 km/h (2 Bft) N-NO 17 3 min 533 W/m 14,7 C 27,5 C 14,5 km/h (3 Bft)
09.05.2018 17:15 27,6 C 46 % 1005,8 hPa 0,0 l/m 6,2 km/h (2 Bft) N 360 3 min 522 W/m 14,9 C 27,6 C 14,5 km/h (3 Bft)
09.05.2018 17:18 27,7 C 49 % 1005,8 hPa 0,0 l/m 5,8 km/h (2 Bft) NO 47 3 min 487 W/m 16,0 C 27,7 C 16,1 km/h (3 Bft)
09.05.2018 17:21 27,4 C 48 % 1005,8 hPa 0,0 l/m 4,1 km/h (1 Bft) N-NO 23 0 min 137 W/m 15,4 C 27,4 C 8,0 km/h (2 Bft)
09.05.2018 17:24 26,9 C 49 % 1005,7 hPa 0,0 l/m 3,8 km/h (1 Bft) O-SO 106 0 min 130 W/m 15,3 C 26,9 C 11,3 km/h (2 Bft)
09.05.2018 17:27 26,3 C 49 % 1005,7 hPa 0,0 l/m 4,7 km/h (1 Bft) S-SO 152 0 min 162 W/m 14,7 C 26,3 C 9,7 km/h (2 Bft)
09.05.2018 17:30 26,1 C 49 % 1005,7 hPa 0,0 l/m 7,6 km/h (2 Bft) N-NO 26 0 min 162 W/m 14,5 C 25,8 C 17,7 km/h (3 Bft)
09.05.2018 17:33 25,9 C 50 % 1005,7 hPa 0,0 l/m 6,0 km/h (2 Bft) NO 54 0 min 149 W/m 14,7 C 25,9 C 16,1 km/h (3 Bft)
09.05.2018 17:36 25,8 C 50 % 1005,7 hPa 0,0 l/m 3,8 km/h (1 Bft) N-NO 24 0 min 153 W/m 14,6 C 25,8 C 9,7 km/h (2 Bft)
09.05.2018 17:39 25,7 C 49 % 1005,7 hPa 0,0 l/m 5,0 km/h (1 Bft) O 80 0 min 155 W/m 14,2 C 25,7 C 14,5 km/h (3 Bft)
09.05.2018 17:42 25,5 C 51 % 1005,6 hPa 0,0 l/m 2,4 km/h (1 Bft) O-NO 78 0 min 149 W/m 14,6 C 25,5 C 4,8 km/h (1 Bft)
09.05.2018 17:45 25,3 C 53 % 1005,6 hPa 0,0 l/m 3,6 km/h (1 Bft) O 87 0 min 123 W/m 15,0 C 25,3 C 9,7 km/h (2 Bft)
09.05.2018 17:48 25,2 C 52 % 1005,6 hPa 0,0 l/m 4,6 km/h (1 Bft) O 100 0 min 109 W/m 14,6 C 25,2 C 9,7 km/h (2 Bft)
09.05.2018 17:51 24,9 C 55 % 1005,7 hPa 0,0 l/m 2,7 km/h (1 Bft) N-NO 32 0 min 130 W/m 15,2 C 24,9 C 8,0 km/h (2 Bft)
09.05.2018 17:54 24,8 C 55 % 1005,6 hPa 0,0 l/m 4,0 km/h (1 Bft) NO 55 0 min 174 W/m 15,1 C 24,8 C 9,7 km/h (2 Bft)
09.05.2018 17:57 25,0 C 53 % 1005,6 hPa 0,0 l/m 4,0 km/h (1 Bft) O-NO 60 3 min 329 W/m 14,7 C 25,0 C 9,7 km/h (2 Bft)
09.05.2018 18:00 25,1 C 54 % 1005,6 hPa 0,0 l/m 3,3 km/h (1 Bft) O-NO 78 0 min 93 W/m 15,1 C 25,1 C 11,3 km/h (2 Bft)
09.05.2018 18:03 24,8 C 54 % 1005,6 hPa 0,0 l/m 3,6 km/h (1 Bft) O 92 0 min 98 W/m 14,8 C 24,8 C 9,7 km/h (2 Bft)
09.05.2018 18:06 24,7 C 54 % 1005,5 hPa 0,0 l/m 2,9 km/h (1 Bft) N-NO 21 0 min 123 W/m 14,8 C 24,7 C 11,3 km/h (2 Bft)
09.05.2018 18:09 24,5 C 53 % 1005,6 hPa 0,0 l/m 4,0 km/h (1 Bft) NO 50 0 min 144 W/m 14,3 C 24,5 C 8,0 km/h (2 Bft)
09.05.2018 18:12 24,4 C 56 % 1005,5 hPa 0,0 l/m 2,8 km/h (1 Bft) NO 51 0 min 123 W/m 15,0 C 24,4 C 6,4 km/h (2 Bft)
09.05.2018 18:15 24,3 C 56 % 1005,6 hPa 0,0 l/m 2,5 km/h (1 Bft) O-NO 72 0 min 109 W/m 14,9 C 24,3 C 6,4 km/h (2 Bft)
09.05.2018 18:18 24,2 C 56 % 1005,5 hPa 0,0 l/m 4,2 km/h (1 Bft) O 91 0 min 123 W/m 14,9 C 24,2 C 11,3 km/h (2 Bft)
09.05.2018 18:21 24,2 C 56 % 1005,5 hPa 0,0 l/m 3,0 km/h (1 Bft) NO 49 0 min 120 W/m 14,9 C 24,2 C 6,4 km/h (2 Bft)
09.05.2018 18:24 24,2 C 56 % 1005,5 hPa 0,0 l/m 3,0 km/h (1 Bft) O-NO 59 0 min 109 W/m 14,9 C 24,2 C 8,0 km/h (2 Bft)
09.05.2018 18:27 24,1 C 56 % 1005,5 hPa 0,0 l/m 3,2 km/h (1 Bft) N-NO 33 0 min 107 W/m 14,8 C 24,1 C 6,4 km/h (2 Bft)
09.05.2018 18:30 24,1 C 57 % 1005,5 hPa 0,0 l/m 1,9 km/h (1 Bft) O 100 0 min 102 W/m 15,0 C 24,1 C 9,7 km/h (2 Bft)
09.05.2018 18:33 24,1 C 57 % 1005,5 hPa 0,0 l/m 3,1 km/h (1 Bft) NO 55 0 min 93 W/m 15,0 C 24,1 C 8,0 km/h (2 Bft)
09.05.2018 18:36 24,1 C 56 % 1005,5 hPa 0,0 l/m 3,0 km/h (1 Bft) N-NO 15 0 min 76 W/m 14,8 C 24,1 C 6,4 km/h (2 Bft)
09.05.2018 18:39 24,2 C 55 % 1005,4 hPa 0,0 l/m 4,4 km/h (1 Bft) SO 126 0 min 67 W/m 14,6 C 24,2 C 12,9 km/h (3 Bft)
09.05.2018 18:42 24,2 C 56 % 1005,5 hPa 0,0 l/m 2,4 km/h (1 Bft) O 92 0 min 65 W/m 14,9 C 24,2 C 11,3 km/h (2 Bft)
09.05.2018 18:45 24,1 C 56 % 1005,4 hPa 0,0 l/m 2,9 km/h (1 Bft) SO 124 0 min 65 W/m 14,8 C 24,1 C 6,4 km/h (2 Bft)
09.05.2018 18:48 24,0 C 55 % 1005,4 hPa 0,0 l/m 4,7 km/h (1 Bft) NO 38 0 min 54 W/m 14,4 C 24,0 C 11,3 km/h (2 Bft)
09.05.2018 18:51 23,9 C 56 % 1005,4 hPa 0,0 l/m 2,8 km/h (1 Bft) O-SO 112 0 min 53 W/m 14,6 C 23,9 C 6,4 km/h (2 Bft)
09.05.2018 18:54 23,8 C 55 % 1005,3 hPa 0,0 l/m 3,4 km/h (1 Bft) N-NW 346 0 min 51 W/m 14,2 C 23,8 C 6,4 km/h (2 Bft)
09.05.2018 18:57 23,7 C 56 % 1005,4 hPa 0,0 l/m 1,8 km/h (1 Bft) O-SO 118 0 min 49 W/m 14,4 C 23,7 C 4,8 km/h (1 Bft)
09.05.2018 19:00 23,7 C 56 % 1005,4 hPa 0,0 l/m 2,8 km/h (1 Bft) O-NO 76 0 min 46 W/m 14,4 C 23,7 C 6,4 km/h (2 Bft)
09.05.2018 19:03 23,6 C 56 % 1005,2 hPa 0,0 l/m 3,4 km/h (1 Bft) O 97 0 min 40 W/m 14,3 C 23,6 C 8,0 km/h (2 Bft)
09.05.2018 19:06 23,4 C 57 % 1005,3 hPa 0,0 l/m 2,5 km/h (1 Bft) O-NO 76 0 min 39 W/m 14,4 C 23,4 C 6,4 km/h (2 Bft)
09.05.2018 19:09 23,3 C 56 % 1005,3 hPa 0,0 l/m 3,1 km/h (1 Bft) O 82 0 min 40 W/m 14,0 C 23,3 C 11,3 km/h (2 Bft)
09.05.2018 19:12 23,2 C 58 % 1005,3 hPa 0,0 l/m 2,7 km/h (1 Bft) O 80 0 min 39 W/m 14,5 C 23,2 C 9,7 km/h (2 Bft)
09.05.2018 19:15 23,2 C 58 % 1005,2 hPa 0,0 l/m 1,9 km/h (1 Bft) O-SO 102 0 min 35 W/m 14,5 C 23,2 C 4,8 km/h (1 Bft)
09.05.2018 19:18 23,0 C 58 % 1005,2 hPa 0,0 l/m 2,6 km/h (1 Bft) O-SO 116 0 min 40 W/m 14,3 C 23,0 C 11,3 km/h (2 Bft)
09.05.2018 19:21 22,9 C 57 % 1005,2 hPa 0,0 l/m 2,2 km/h (1 Bft) NO 49 0 min 47 W/m 13,9 C 22,9 C 4,8 km/h (1 Bft)
09.05.2018 19:24 22,8 C 58 % 1005,2 hPa 0,0 l/m 1,3 km/h (1 Bft) O-NO 77 0 min 51 W/m 14,1 C 22,8 C 6,4 km/h (2 Bft)
09.05.2018 19:27 22,7 C 60 % 1005,2 hPa 0,0 l/m 0,7 km/h (0 Bft) O 84 0 min 49 W/m 14,5 C 22,7 C 3,2 km/h (1 Bft)
09.05.2018 19:30 22,7 C 60 % 1005,2 hPa 0,0 l/m 1,7 km/h (1 Bft) NO 40 0 min 47 W/m 14,5 C 22,7 C 6,4 km/h (2 Bft)
09.05.2018 19:33 22,6 C 61 % 1005,2 hPa 0,0 l/m 1,5 km/h (1 Bft) NO 46 0 min 46 W/m 14,7 C 22,6 C 4,8 km/h (1 Bft)
09.05.2018 19:36 22,5 C 62 % 1005,1 hPa 0,0 l/m 1,3 km/h (1 Bft) NO 46 0 min 42 W/m 14,8 C 22,5 C 3,2 km/h (1 Bft)
09.05.2018 19:39 22,4 C 62 % 1005,0 hPa 0,0 l/m 1,7 km/h (1 Bft) O-SO 119 0 min 37 W/m 14,8 C 22,4 C 9,7 km/h (2 Bft)
09.05.2018 19:42 22,3 C 63 % 1005,1 hPa 0,0 l/m 1,7 km/h (1 Bft) O 82 0 min 32 W/m 14,9 C 22,3 C 4,8 km/h (1 Bft)
09.05.2018 19:45 22,2 C 63 % 1005,1 hPa 0,0 l/m 1,3 km/h (1 Bft) O 101 0 min 28 W/m 14,8 C 22,2 C 6,4 km/h (2 Bft)
09.05.2018 19:48 22,1 C 64 % 1005,1 hPa 0,0 l/m 1,0 km/h (0 Bft) O 94 0 min 26 W/m 15,0 C 22,1 C 3,2 km/h (1 Bft)
09.05.2018 19:51 21,9 C 64 % 1005,0 hPa 0,0 l/m 1,3 km/h (1 Bft) O-NO 61 0 min 25 W/m 14,8 C 21,9 C 4,8 km/h (1 Bft)
09.05.2018 19:54 21,9 C 64 % 1005,0 hPa 0,0 l/m 1,8 km/h (1 Bft) O-NO 67 0 min 25 W/m 14,8 C 21,9 C 3,2 km/h (1 Bft)
09.05.2018 19:57 21,8 C 64 % 1005,0 hPa 0,0 l/m 1,7 km/h (1 Bft) O-NO 66 0 min 25 W/m 14,7 C 21,8 C 3,2 km/h (1 Bft)
09.05.2018 20:00 21,7 C 65 % 1005,0 hPa 0,0 l/m 1,0 km/h (0 Bft) NO 53 0 min 25 W/m 14,8 C 21,7 C 4,8 km/h (1 Bft)
09.05.2018 20:03 21,5 C 66 % 1005,0 hPa 0,0 l/m 0,4 km/h (0 Bft) NO 53 0 min 23 W/m 14,9 C 21,5 C 3,2 km/h (1 Bft)
09.05.2018 20:06 21,4 C 66 % 1005,0 hPa 0,0 l/m 0,6 km/h (0 Bft) NO 52 0 min 25 W/m 14,8 C 21,4 C 3,2 km/h (1 Bft)
09.05.2018 20:09 21,3 C 66 % 1005,0 hPa 0,0 l/m 0,7 km/h (0 Bft) NO 53 0 min 23 W/m 14,7 C 21,3 C 3,2 km/h (1 Bft)
09.05.2018 20:12 21,2 C 67 % 1005,0 hPa 0,0 l/m 0,0 km/h (0 Bft) NO 52 0 min 21 W/m 14,8 C 21,2 C 0,0 km/h (0 Bft)
09.05.2018 20:15 21,1 C 67 % 1005,0 hPa 0,0 l/m 0,0 km/h (0 Bft) O-NO 61 0 min 21 W/m 14,7 C 21,1 C 0,0 km/h (0 Bft)
09.05.2018 20:18 21,0 C 67 % 1005,0 hPa 0,0 l/m 0,3 km/h (0 Bft) NO 34 0 min 19 W/m 14,6 C 21,0 C 3,2 km/h (1 Bft)
09.05.2018 20:21 20,9 C 67 % 1005,0 hPa 0,0 l/m 1,2 km/h (1 Bft) NO 44 0 min 19 W/m 14,5 C 20,9 C 4,8 km/h (1 Bft)
09.05.2018 20:24 20,8 C 68 % 1005,0 hPa 0,0 l/m 1,7 km/h (1 Bft) O-NO 64 0 min 18 W/m 14,7 C 20,8 C 6,4 km/h (2 Bft)
09.05.2018 20:27 20,7 C 68 % 1005,0 hPa 0,0 l/m 3,3 km/h (1 Bft) NO 38 0 min 16 W/m 14,6 C 20,7 C 8,0 km/h (2 Bft)
09.05.2018 20:30 20,6 C 68 % 1005,0 hPa 0,0 l/m 2,4 km/h (1 Bft) NO 49 0 min 14 W/m 14,5 C 20,6 C 6,4 km/h (2 Bft)
09.05.2018 20:33 20,4 C 68 % 1005,0 hPa 0,0 l/m 2,8 km/h (1 Bft) O-NO 57 0 min 12 W/m 14,3 C 20,4 C 8,0 km/h (2 Bft)
09.05.2018 20:36 20,4 C 69 % 1004,9 hPa 0,0 l/m 2,4 km/h (1 Bft) O 82 0 min 12 W/m 14,5 C 20,4 C 6,4 km/h (2 Bft)
09.05.2018 20:39 20,4 C 69 % 1004,9 hPa 0,0 l/m 1,0 km/h (0 Bft) NO 41 0 min 11 W/m 14,5 C 20,4 C 3,2 km/h (1 Bft)
09.05.2018 20:42 20,3 C 69 % 1004,9 hPa 0,0 l/m 1,3 km/h (1 Bft) O 94 0 min 9 W/m 14,4 C 20,3 C 4,8 km/h (1 Bft)
09.05.2018 20:45 20,3 C 69 % 1004,9 hPa 0,0 l/m 1,8 km/h (1 Bft) O 101 0 min 9 W/m 14,4 C 20,3 C 6,4 km/h (2 Bft)
09.05.2018 20:48 20,3 C 68 % 1004,9 hPa 0,0 l/m 3,3 km/h (1 Bft) NO 38 0 min 7 W/m 14,2 C 20,3 C 9,7 km/h (2 Bft)
09.05.2018 20:51 20,3 C 68 % 1004,9 hPa 0,0 l/m 3,1 km/h (1 Bft) NO 41 0 min 7 W/m 14,2 C 20,3 C 9,7 km/h (2 Bft)
09.05.2018 20:54 20,3 C 68 % 1004,9 hPa 0,0 l/m 1,9 km/h (1 Bft) O-NO 61 0 min 5 W/m 14,2 C 20,3 C 4,8 km/h (1 Bft)
09.05.2018 20:57 20,2 C 69 % 1004,9 hPa 0,0 l/m 2,6 km/h (1 Bft) NO 43 0 min 5 W/m 14,3 C 20,2 C 12,9 km/h (3 Bft)
09.05.2018 21:00 20,3 C 69 % 1005,0 hPa 0,0 l/m 3,9 km/h (1 Bft) O 86 0 min 0 W/m 14,4 C 20,3 C 11,3 km/h (2 Bft)
09.05.2018 21:03 20,3 C 69 % 1005,0 hPa 0,0 l/m 3,4 km/h (1 Bft) O-NO 73 0 min 0 W/m 14,4 C 20,3 C 12,9 km/h (3 Bft)
09.05.2018 21:06 20,4 C 69 % 1005,0 hPa 0,0 l/m 3,5 km/h (1 Bft) O-NO 71 0 min 0 W/m 14,5 C 20,4 C 9,7 km/h (2 Bft)
09.05.2018 21:09 20,5 C 68 % 1004,9 hPa 0,0 l/m 4,6 km/h (1 Bft) O-NO 78 0 min 0 W/m 14,4 C 20,5 C 12,9 km/h (3 Bft)
09.05.2018 21:12 20,6 C 68 % 1004,9 hPa 0,0 l/m 4,5 km/h (1 Bft) O 101 0 min 0 W/m 14,5 C 20,6 C 11,3 km/h (2 Bft)
09.05.2018 21:15 20,7 C 68 % 1004,9 hPa 0,0 l/m 5,7 km/h (2 Bft) O-SO 119 0 min 0 W/m 14,6 C 20,7 C 16,1 km/h (3 Bft)
09.05.2018 21:18 20,7 C 68 % 1004,9 hPa 0,0 l/m 4,5 km/h (1 Bft) O 84 0 min 0 W/m 14,6 C 20,7 C 14,5 km/h (3 Bft)
09.05.2018 21:21 20,7 C 68 % 1005,0 hPa 0,0 l/m 3,5 km/h (1 Bft) O-NO 71 0 min 0 W/m 14,6 C 20,7 C 11,3 km/h (2 Bft)
09.05.2018 21:24 20,7 C 68 % 1005,0 hPa 0,0 l/m 5,3 km/h (1 Bft) O-NO 58 0 min 0 W/m 14,6 C 20,7 C 12,9 km/h (3 Bft)
09.05.2018 21:27 20,6 C 67 % 1005,0 hPa 0,0 l/m 4,4 km/h (1 Bft) N 5 0 min 0 W/m 14,3 C 20,6 C 14,5 km/h (3 Bft)
09.05.2018 21:30 20,7 C 67 % 1005,0 hPa 0,0 l/m 5,0 km/h (1 Bft) O-NO 62 0 min 0 W/m 14,3 C 20,7 C 14,5 km/h (3 Bft)
09.05.2018 21:33 20,7 C 67 % 1005,1 hPa 0,0 l/m 5,6 km/h (2 Bft) O 100 0 min 0 W/m 14,3 C 20,7 C 19,3 km/h (3 Bft)
09.05.2018 21:36 20,7 C 67 % 1005,1 hPa 0,0 l/m 3,0 km/h (1 Bft) S-SW 198 0 min 0 W/m 14,3 C 20,7 C 16,1 km/h (3 Bft)
09.05.2018 21:39 20,6 C 67 % 1005,2 hPa 0,0 l/m 4,1 km/h (1 Bft) O-SO 114 0 min 0 W/m 14,3 C 20,6 C 9,7 km/h (2 Bft)
09.05.2018 21:42 20,6 C 67 % 1005,2 hPa 0,0 l/m 4,5 km/h (1 Bft) O 100 0 min 0 W/m 14,3 C 20,6 C 12,9 km/h (3 Bft)
09.05.2018 21:45 20,6 C 65 % 1005,1 hPa 0,0 l/m 5,4 km/h (2 Bft) S-SO 150 0 min 0 W/m 13,8 C 20,6 C 14,5 km/h (3 Bft)
09.05.2018 21:48 20,7 C 65 % 1005,2 hPa 0,0 l/m 6,1 km/h (2 Bft) NO 49 0 min 0 W/m 13,9 C 20,7 C 14,5 km/h (3 Bft)
09.05.2018 21:51 20,8 C 64 % 1005,1 hPa 0,0 l/m 5,9 km/h (2 Bft) N 355 0 min 0 W/m 13,7 C 20,8 C 14,5 km/h (3 Bft)
09.05.2018 21:54 20,7 C 64 % 1005,2 hPa 0,0 l/m 5,0 km/h (1 Bft) O 96 0 min 0 W/m 13,6 C 20,7 C 14,5 km/h (3 Bft)
09.05.2018 21:57 20,7 C 64 % 1005,2 hPa 0,0 l/m 5,9 km/h (2 Bft) O-NO 58 0 min 0 W/m 13,6 C 20,7 C 19,3 km/h (3 Bft)
09.05.2018 22:00 20,7 C 64 % 1005,2 hPa 0,0 l/m 2,7 km/h (1 Bft) N-NW 327 0 min 0 W/m 13,6 C 20,7 C 4,8 km/h (1 Bft)
09.05.2018 22:03 20,6 C 64 % 1005,2 hPa 0,0 l/m 4,8 km/h (1 Bft) SW 226 0 min 0 W/m 13,5 C 20,6 C 9,7 km/h (2 Bft)
09.05.2018 22:06 20,4 C 64 % 1005,2 hPa 0,0 l/m 3,9 km/h (1 Bft) N-NW 335 0 min 0 W/m 13,4 C 20,4 C 14,5 km/h (3 Bft)
09.05.2018 22:09 20,4 C 65 % 1005,2 hPa 0,0 l/m 5,7 km/h (2 Bft) O 96 0 min 0 W/m 13,6 C 20,4 C 16,1 km/h (3 Bft)
09.05.2018 22:12 20,3 C 65 % 1005,2 hPa 0,0 l/m 5,6 km/h (2 Bft) O 85 0 min 0 W/m 13,5 C 20,3 C 12,9 km/h (3 Bft)
09.05.2018 22:15 20,3 C 65 % 1005,3 hPa 0,0 l/m 4,4 km/h (1 Bft) O-SO 121 0 min 0 W/m 13,5 C 20,3 C 12,9 km/h (3 Bft)
09.05.2018 22:18 20,2 C 65 % 1005,4 hPa 0,0 l/m 4,8 km/h (1 Bft) SO 130 0 min 0 W/m 13,4 C 20,2 C 11,3 km/h (2 Bft)
09.05.2018 22:21 20,2 C 65 % 1005,4 hPa 0,0 l/m 5,9 km/h (2 Bft) NO 35 0 min 0 W/m 13,4 C 20,2 C 14,5 km/h (3 Bft)
09.05.2018 22:24 20,2 C 65 % 1005,4 hPa 0,0 l/m 4,1 km/h (1 Bft) O-NO 70 0 min 0 W/m 13,4 C 20,2 C 14,5 km/h (3 Bft)
09.05.2018 22:27 20,1 C 65 % 1005,4 hPa 0,0 l/m 7,6 km/h (2 Bft) O-SO 115 0 min 0 W/m 13,3 C 19,6 C 16,1 km/h (3 Bft)
09.05.2018 22:30 20,1 C 65 % 1005,4 hPa 0,0 l/m 5,9 km/h (2 Bft) O-SO 109 0 min 0 W/m 13,3 C 20,1 C 14,5 km/h (3 Bft)
09.05.2018 22:33 20,1 C 65 % 1005,4 hPa 0,0 l/m 7,5 km/h (2 Bft) S 182 0 min 0 W/m 13,3 C 19,7 C 16,1 km/h (3 Bft)
09.05.2018 22:36 20,1 C 66 % 1005,4 hPa 0,0 l/m 5,5 km/h (2 Bft) S-SO 153 0 min 0 W/m 13,5 C 20,1 C 17,7 km/h (3 Bft)
09.05.2018 22:39 20,1 C 66 % 1005,4 hPa 0,0 l/m 6,4 km/h (2 Bft) NO 44 0 min 0 W/m 13,5 C 20,1 C 14,5 km/h (3 Bft)
09.05.2018 22:42 20,1 C 66 % 1005,4 hPa 0,0 l/m 4,5 km/h (1 Bft) W-NW 288 0 min 0 W/m 13,5 C 20,1 C 12,9 km/h (3 Bft)
09.05.2018 22:45 20,1 C 66 % 1005,4 hPa 0,0 l/m 6,6 km/h (2 Bft) O-SO 105 0 min 0 W/m 13,5 C 20,0 C 14,5 km/h (3 Bft)
09.05.2018 22:48 20,1 C 65 % 1005,4 hPa 0,0 l/m 4,4 km/h (1 Bft) O 80 0 min 0 W/m 13,3 C 20,1 C 11,3 km/h (2 Bft)
09.05.2018 22:51 20,1 C 66 % 1005,4 hPa 0,0 l/m 5,8 km/h (2 Bft) O 90 0 min 0 W/m 13,5 C 20,1 C 14,5 km/h (3 Bft)
09.05.2018 22:54 20,0 C 66 % 1005,4 hPa 0,0 l/m 5,1 km/h (1 Bft) O-NO 74 0 min 0 W/m 13,4 C 20,0 C 14,5 km/h (3 Bft)
09.05.2018 22:57 19,9 C 66 % 1005,5 hPa 0,0 l/m 6,5 km/h (2 Bft) N-NO 30 0 min 0 W/m 13,4 C 19,9 C 12,9 km/h (3 Bft)
09.05.2018 23:00 19,9 C 66 % 1005,4 hPa 0,0 l/m 4,0 km/h (1 Bft) O 84 0 min 0 W/m 13,4 C 19,9 C 9,7 km/h (2 Bft)
09.05.2018 23:03 19,8 C 66 % 1005,4 hPa 0,0 l/m 4,0 km/h (1 Bft) O-NO 74 0 min 0 W/m 13,3 C 19,8 C 11,3 km/h (2 Bft)
09.05.2018 23:06 19,7 C 67 % 1005,5 hPa 0,0 l/m 5,5 km/h (2 Bft) NO 34 0 min 0 W/m 13,4 C 19,7 C 14,5 km/h (3 Bft)
09.05.2018 23:09 19,6 C 68 % 1005,5 hPa 0,0 l/m 3,1 km/h (1 Bft) SO 134 0 min 0 W/m 13,5 C 19,6 C 8,0 km/h (2 Bft)
09.05.2018 23:12 19,4 C 68 % 1005,5 hPa 0,0 l/m 4,5 km/h (1 Bft) O-NO 59 0 min 0 W/m 13,3 C 19,4 C 12,9 km/h (3 Bft)
09.05.2018 23:15 19,4 C 68 % 1005,5 hPa 0,0 l/m 6,4 km/h (2 Bft) O-SO 106 0 min 0 W/m 13,3 C 19,4 C 12,9 km/h (3 Bft)
09.05.2018 23:18 19,4 C 69 % 1005,5 hPa 0,0 l/m 4,0 km/h (1 Bft) O-SO 115 0 min 0 W/m 13,6 C 19,4 C 9,7 km/h (2 Bft)
09.05.2018 23:21 19,3 C 69 % 1005,5 hPa 0,0 l/m 5,3 km/h (1 Bft) O 80 0 min 0 W/m 13,5 C 19,3 C 12,9 km/h (3 Bft)
09.05.2018 23:24 19,3 C 69 % 1005,5 hPa 0,0 l/m 4,5 km/h (1 Bft) O 90 0 min 0 W/m 13,5 C 19,3 C 14,5 km/h (3 Bft)
09.05.2018 23:27 19,2 C 69 % 1005,5 hPa 0,0 l/m 6,1 km/h (2 Bft) S-SO 163 0 min 0 W/m 13,4 C 19,2 C 14,5 km/h (3 Bft)
09.05.2018 23:30 19,2 C 70 % 1005,5 hPa 0,0 l/m 3,6 km/h (1 Bft) NO 49 0 min 0 W/m 13,6 C 19,2 C 8,0 km/h (2 Bft)
09.05.2018 23:33 19,1 C 70 % 1005,5 hPa 0,0 l/m 4,9 km/h (1 Bft) O-NO 58 0 min 0 W/m 13,5 C 19,1 C 11,3 km/h (2 Bft)
09.05.2018 23:36 19,1 C 70 % 1005,4 hPa 0,0 l/m 4,8 km/h (1 Bft) O-NO 62 0 min 0 W/m 13,5 C 19,1 C 11,3 km/h (2 Bft)
09.05.2018 23:39 19,1 C 71 % 1005,5 hPa 0,0 l/m 4,4 km/h (1 Bft) N-NW 345 0 min 0 W/m 13,7 C 19,1 C 14,5 km/h (3 Bft)
09.05.2018 23:42 19,0 C 71 % 1005,5 hPa 0,0 l/m 4,1 km/h (1 Bft) O 86 0 min 0 W/m 13,6 C 19,0 C 12,9 km/h (3 Bft)
09.05.2018 23:45 18,9 C 71 % 1005,5 hPa 0,0 l/m 5,3 km/h (1 Bft) S-SO 152 0 min 0 W/m 13,5 C 18,9 C 14,5 km/h (3 Bft)
09.05.2018 23:48 18,9 C 71 % 1005,5 hPa 0,0 l/m 3,2 km/h (1 Bft) N-NO 21 0 min 0 W/m 13,5 C 18,9 C 8,0 km/h (2 Bft)
09.05.2018 23:51 18,9 C 72 % 1005,6 hPa 0,0 l/m 3,4 km/h (1 Bft) NO 55 0 min 0 W/m 13,7 C 18,9 C 12,9 km/h (3 Bft)
09.05.2018 23:54 18,8 C 72 % 1005,5 hPa 0,0 l/m 5,5 km/h (2 Bft) O-SO 113 0 min 0 W/m 13,6 C 18,8 C 11,3 km/h (2 Bft)
09.05.2018 23:57 18,8 C 72 % 1005,5 hPa 0,0 l/m 2,4 km/h (1 Bft) O 99 0 min 0 W/m 13,6 C 18,8 C 6,4 km/h (2 Bft)
_ Min-Zeit 04:42 14:42 20:36 - 20:12 - - - - 00:00 04:45 20:12
Minimum _ 12,9 C 33 % 1004,9 hPa - 0,0 km/h (0 Bft) - - - - 8,4 C 12,9 C 0,0 km/h (0 Bft)
_ Max-Zeit 16:39 05:42 01:09 00:00 15:51 - - 08:51 13:09 17:18 16:36 14:18
Maximum _ 29,0 C 85 % 1009,2 hPa 0,0 l/m 12,6 km/h
S-SO (3 Bft)
- - 3 min 772 W/m 16,0 C 28,9 C 27,4 km/h
S-SO (5 Bft)
Durchschnitt _ 20,6 C 61 % 1007,3 hPa #0,0 l/m 4,5 km/h (1 Bft) O - #8:33 h 368 W/m 12,0 C 20,5 C 10,6 km/h (2 Bft)
2018 Cux-Wetter.de -Die Nutzung der Wetterdaten nur mit ausdrcklicher Genehmigung